DLH796 EDDF-VHHH

Flight info

Callsign DLH796
Flight time 11h 13m
Altitude 33000
Route SULUS4D SULUS Z650 VEMUT DCT BUDEX DCT TEKNO DCT TEGRI DCT LUGEB DCT UDROS UM859 KARDE/N0477F350 UL851 TBN UM11 REBLO M11 LUSAL M747 SULEL N449 DUKAN B449 RANAH L750 UPVAL/N0475F370 L750 MERUN G452 LKN A201 LSO A599 LINSO/K0895S1130 A599 LXI/K0887S1190 A599 POU R473 SIERA
Aircraft A346/H-SDE2E3FGHIJ3J4J5M1RWXY/LB1D1

Departure

Time 2026-04-16 11:44
Airport Frankfurt Main Airport (EDDF)

Arrival

Time 2026-04-16 22:57
Airport Hong Kong International Airport (VHHH)
Time Latitude Longitude Altitude Speed Heading
2026-04-16 11:08 50.04723 8.56277 370 ft 0 kts 339°
2026-04-16 11:24 50.04710 8.56287 364 ft 4 kts 309°
2026-04-16 11:24 50.04705 8.56308 364 ft 4 kts 287°
2026-04-16 11:24 50.04697 8.56330 366 ft 4 kts 321°
2026-04-16 11:24 50.04676 8.56348 364 ft 4 kts 346°
2026-04-16 11:25 50.04657 8.56348 364 ft 4 kts 21°
2026-04-16 11:25 50.04643 8.56333 366 ft 4 kts 60°
2026-04-16 11:25 50.04636 8.56305 364 ft 4 kts 70°
2026-04-16 11:25 50.04627 8.56265 366 ft 4 kts 70°
2026-04-16 11:26 50.04624 8.56253 368 ft 0 kts 70°
2026-04-16 11:29 50.04624 8.56254 368 ft 0 kts 70°
2026-04-16 11:29 50.04627 8.56269 364 ft 2 kts 70°
2026-04-16 11:30 50.04636 8.56305 364 ft 5 kts 70°
2026-04-16 11:30 50.04649 8.56363 364 ft 7 kts 70°
2026-04-16 11:30 50.04651 8.56436 364 ft 7 kts 118°
2026-04-16 11:30 50.04643 8.56451 364 ft 0 kts 138°
2026-04-16 11:31 50.04637 8.56458 364 ft 0 kts 144°
2026-04-16 11:31 50.04615 8.56471 364 ft 6 kts 175°
2026-04-16 11:31 50.04550 8.56430 368 ft 14 kts 214°
2026-04-16 11:31 50.04494 8.56289 366 ft 16 kts 249°
2026-04-16 11:32 50.04455 8.56127 368 ft 16 kts 249°
2026-04-16 11:32 50.04435 8.56044 368 ft 8 kts 249°
2026-04-16 11:32 50.04414 8.55959 364 ft 9 kts 245°
2026-04-16 11:32 50.04362 8.55922 370 ft 10 kts 170°
2026-04-16 11:33 50.04326 8.55941 363 ft 0 kts 160°
2026-04-16 11:38 50.04324 8.55942 363 ft 1 kts 160°
2026-04-16 11:38 50.04304 8.55951 366 ft 6 kts 167°
2026-04-16 11:38 50.04226 8.55886 368 ft 22 kts 245°
2026-04-16 11:38 50.04158 8.55603 366 ft 29 kts 249°
2026-04-16 11:39 50.04089 8.55311 368 ft 28 kts 250°
2026-04-16 11:39 50.04021 8.55027 366 ft 28 kts 250°
2026-04-16 11:39 50.03953 8.54741 361 ft 28 kts 249°
2026-04-16 11:39 50.03887 8.54466 360 ft 21 kts 249°
2026-04-16 11:40 50.03814 8.54266 361 ft 22 kts 239°
2026-04-16 11:40 50.03757 8.54045 352 ft 22 kts 249°
2026-04-16 11:40 50.03701 8.53813 354 ft 23 kts 250°
2026-04-16 11:40 50.03675 8.53704 355 ft 16 kts 249°
2026-04-16 11:41 50.03635 8.53542 353 ft 16 kts 248°
2026-04-16 11:41 50.03593 8.53372 357 ft 17 kts 250°
2026-04-16 11:41 50.03551 8.53196 350 ft 18 kts 250°
2026-04-16 11:41 50.03508 8.53016 356 ft 18 kts 250°
2026-04-16 11:42 50.03463 8.52831 351 ft 18 kts 247°
2026-04-16 11:42 50.03418 8.52668 349 ft 9 kts 246°
2026-04-16 11:42 50.03374 8.52606 352 ft 9 kts 198°
2026-04-16 11:42 50.03272 8.52595 344 ft 31 kts 180°
2026-04-16 11:43 50.02868 8.52597 350 ft 84 kts 179°
2026-04-16 11:43 50.02119 8.52606 343 ft 130 kts 180°
2026-04-16 11:43 50.01072 8.52616 338 ft 170 kts 179°
2026-04-16 11:43 49.99826 8.52637 577 ft 180 kts 180°
2026-04-16 11:44 49.98596 8.52634 1049 ft 179 kts 180°
2026-04-16 11:44 49.97333 8.52694 1445 ft 185 kts 166°
2026-04-16 11:44 49.96246 8.53742 1825 ft 190 kts 127°
2026-04-16 11:44 49.95564 8.55528 2197 ft 196 kts 120°
2026-04-16 11:45 49.94890 8.57448 2429 ft 207 kts 120°
2026-04-16 11:45 49.94258 8.59533 2666 ft 220 kts 109°
2026-04-16 11:45 49.93969 8.61941 2888 ft 234 kts 96°
2026-04-16 11:45 49.93861 8.64551 3138 ft 249 kts 93°
2026-04-16 11:46 49.93768 8.67313 3409 ft 262 kts 97°
2026-04-16 11:46 49.93151 8.69997 3750 ft 269 kts 130°
2026-04-16 11:46 49.91761 8.71898 4318 ft 269 kts 146°
2026-04-16 11:46 49.90250 8.73669 4822 ft 276 kts 133°
2026-04-16 11:47 49.89185 8.76159 5373 ft 279 kts 116°
2026-04-16 11:47 49.88344 8.78918 5894 ft 287 kts 114°
2026-04-16 11:47 49.87479 8.81772 6383 ft 295 kts 115°
2026-04-16 11:47 49.86565 8.84641 6999 ft 297 kts 116°
2026-04-16 11:48 49.85615 8.87500 7676 ft 297 kts 117°
2026-04-16 11:48 49.84648 8.90336 8332 ft 301 kts 117°
2026-04-16 11:48 49.83639 8.93252 8713 ft 311 kts 118°
2026-04-16 11:48 49.82615 8.96187 9224 ft 316 kts 118°
2026-04-16 11:49 49.81563 8.99191 9831 ft 318 kts 118°
2026-04-16 11:49 49.80498 9.02220 10391 ft 321 kts 118°
2026-04-16 11:49 49.79413 9.05296 10779 ft 332 kts 118°
2026-04-16 11:49 49.78281 9.08495 11026 ft 345 kts 118°
2026-04-16 11:50 49.77104 9.11820 11273 ft 358 kts 118°
2026-04-16 11:50 49.75893 9.15274 11519 ft 372 kts 117°
2026-04-16 11:50 49.74824 9.18994 11768 ft 385 kts 110°
2026-04-16 11:50 49.73988 9.22982 12147 ft 392 kts 104°
2026-04-16 11:51 49.73311 9.27085 12701 ft 395 kts 103°
2026-04-16 11:51 49.72648 9.31244 13254 ft 398 kts 103°
2026-04-16 11:51 49.71979 9.35423 13770 ft 402 kts 104°
2026-04-16 11:51 49.71297 9.39646 14278 ft 406 kts 104°
2026-04-16 11:52 49.70602 9.43914 14757 ft 410 kts 104°
2026-04-16 11:52 49.69899 9.48203 15254 ft 413 kts 104°
2026-04-16 11:52 49.69186 9.52530 15736 ft 417 kts 104°
2026-04-16 11:52 49.68465 9.56897 16211 ft 420 kts 104°
2026-04-16 11:53 49.67741 9.61295 16677 ft 424 kts 103°
2026-04-16 11:53 49.67314 9.65825 17105 ft 427 kts 91°
2026-04-16 11:53 49.67486 9.70417 17537 ft 430 kts 79°
2026-04-16 11:53 49.68173 9.74926 17974 ft 432 kts 73°
2026-04-16 11:54 49.69000 9.79401 18406 ft 435 kts 72°
2026-04-16 11:54 49.69842 9.83922 18810 ft 439 kts 72°
2026-04-16 11:54 49.70670 9.88486 19220 ft 442 kts 72°
2026-04-16 11:54 49.71672 9.92990 19632 ft 444 kts 65°
2026-04-16 11:55 49.73038 9.97272 20038 ft 444 kts 57°
2026-04-16 11:55 49.74736 10.01291 20448 ft 446 kts 52°
2026-04-16 11:55 49.76544 10.05196 20833 ft 448 kts 51°
2026-04-16 11:55 49.78391 10.09128 21206 ft 452 kts 51°
2026-04-16 11:56 49.80244 10.13083 21586 ft 454 kts 51°
2026-04-16 11:56 49.82097 10.17066 21955 ft 457 kts 51°
2026-04-16 11:56 49.83931 10.21032 22317 ft 460 kts 51°
2026-04-16 11:56 49.85797 10.25086 22685 ft 463 kts 52°
2026-04-16 11:57 49.87668 10.29160 23030 ft 465 kts 52°
2026-04-16 11:57 49.89551 10.33271 23367 ft 468 kts 52°
2026-04-16 11:57 49.91438 10.37396 23699 ft 470 kts 52°
2026-04-16 11:57 49.93366 10.41620 24026 ft 473 kts 52°
2026-04-16 11:58 49.95247 10.45746 24352 ft 475 kts 52°
2026-04-16 11:58 49.97161 10.49952 24684 ft 477 kts 52°
2026-04-16 11:58 49.99080 10.54183 25016 ft 479 kts 52°
2026-04-16 11:58 50.01003 10.58427 25319 ft 482 kts 52°
2026-04-16 11:59 50.02940 10.62711 25601 ft 485 kts 52°
2026-04-16 11:59 50.04864 10.67055 25874 ft 489 kts 56°
2026-04-16 11:59 50.06192 10.71958 26019 ft 498 kts 76°
2026-04-16 11:59 50.06450 10.77347 26306 ft 501 kts 95°
2026-04-16 12:00 50.05682 10.82624 26610 ft 501 kts 109°
2026-04-16 12:00 50.04544 10.87764 26919 ft 502 kts 110°
2026-04-16 12:00 50.03384 10.92908 27161 ft 505 kts 110°
2026-04-16 12:00 50.02231 10.98100 27413 ft 507 kts 110°
2026-04-16 12:01 50.01101 11.03297 27671 ft 510 kts 110°
2026-04-16 12:01 49.99974 11.08542 27927 ft 512 kts 109°
2026-04-16 12:01 49.98851 11.13801 28168 ft 514 kts 109°
2026-04-16 12:02 49.96600 11.24334 28913 ft 511 kts 109°
2026-04-16 12:02 49.95501 11.29512 29300 ft 510 kts 109°
2026-04-16 12:02 49.94390 11.34757 29636 ft 509 kts 109°
2026-04-16 12:02 49.93288 11.39970 29951 ft 509 kts 109°
2026-04-16 12:03 49.92282 11.45254 30251 ft 509 kts 107°
2026-04-16 12:03 49.91312 11.50542 30555 ft 509 kts 107°
2026-04-16 12:03 49.90344 11.55836 30843 ft 509 kts 107°
2026-04-16 12:03 49.89357 11.61178 31145 ft 508 kts 106°
2026-04-16 12:04 49.88487 11.66428 31432 ft 508 kts 103°
2026-04-16 12:04 49.87796 11.71817 31685 ft 508 kts 100°
2026-04-16 12:04 49.87278 11.77280 31906 ft 509 kts 98°
2026-04-16 12:04 49.86808 11.82736 32125 ft 510 kts 98°
2026-04-16 12:05 49.86341 11.88202 32324 ft 511 kts 98°
2026-04-16 12:05 49.85863 11.93669 32549 ft 512 kts 98°
2026-04-16 12:05 49.85374 11.99146 32758 ft 512 kts 98°
2026-04-16 12:05 49.84881 12.04642 32966 ft 513 kts 98°
2026-04-16 12:06 49.84385 12.10122 33164 ft 514 kts 98°
2026-04-16 12:06 49.83884 12.15640 33138 ft 504 kts 98°
2026-04-16 12:06 49.82901 12.26354 33200 ft 506 kts 99°
2026-04-16 12:07 49.81618 12.37171 33211 ft 513 kts 106°
2026-04-16 12:07 49.79321 12.47638 33209 ft 512 kts 115°
2026-04-16 12:08 49.76034 12.57384 33212 ft 509 kts 125°
2026-04-16 12:08 49.74402 12.61191 33213 ft 508 kts 128°
2026-04-16 12:09 49.70347 12.70177 33219 ft 507 kts 128°
2026-04-16 12:09 49.66297 12.79131 33224 ft 508 kts 128°
2026-04-16 12:10 49.62263 12.88071 33227 ft 507 kts 128°
2026-04-16 12:10 49.58249 12.96957 33234 ft 507 kts 128°
2026-04-16 12:11 49.54195 13.05905 33239 ft 507 kts 128°
2026-04-16 12:11 49.50148 13.14811 33235 ft 507 kts 128°
2026-04-16 12:12 49.46090 13.23707 33240 ft 508 kts 128°
2026-04-16 12:12 49.42013 13.32618 33237 ft 508 kts 128°
2026-04-16 12:13 49.37939 13.41490 33241 ft 508 kts 129°
2026-04-16 12:13 49.33856 13.50352 33236 ft 508 kts 129°
2026-04-16 12:14 49.29771 13.59192 33237 ft 508 kts 129°
2026-04-16 12:14 49.25666 13.68043 33230 ft 508 kts 129°
2026-04-16 12:15 49.21567 13.76853 33231 ft 507 kts 129°
2026-04-16 12:15 49.17490 13.85589 33235 ft 507 kts 129°
2026-04-16 12:16 49.13360 13.94403 33241 ft 514 kts 129°
2026-04-16 12:16 49.09154 14.03352 33240 ft 519 kts 129°
2026-04-16 12:17 49.04933 14.12311 33234 ft 519 kts 129°
2026-04-16 12:17 49.00704 14.21251 33237 ft 519 kts 129°
2026-04-16 12:18 48.96464 14.30179 33238 ft 519 kts 129°
2026-04-16 12:18 48.92476 14.39361 33229 ft 520 kts 125°
2026-04-16 12:19 48.88655 14.48733 33233 ft 521 kts 125°
2026-04-16 12:19 48.84830 14.58080 33236 ft 520 kts 125°
2026-04-16 12:20 48.81010 14.67375 33232 ft 513 kts 125°
2026-04-16 12:20 48.77251 14.76487 33238 ft 507 kts 125°
2026-04-16 12:21 48.73522 14.85489 33237 ft 507 kts 125°
2026-04-16 12:21 48.69763 14.94531 33236 ft 506 kts 125°
2026-04-16 12:22 48.65998 15.03559 33232 ft 506 kts 125°
2026-04-16 12:22 48.62233 15.12559 33230 ft 506 kts 125°
2026-04-16 12:23 48.58456 15.21553 33227 ft 506 kts 125°
2026-04-16 12:23 48.54672 15.30538 33227 ft 506 kts 125°
2026-04-16 12:24 48.50887 15.39494 33228 ft 505 kts 125°
2026-04-16 12:24 48.47096 15.48435 33226 ft 505 kts 125°
2026-04-16 12:25 48.43302 15.57356 33221 ft 504 kts 125°
2026-04-16 12:25 48.39505 15.66249 33217 ft 504 kts 125°
2026-04-16 12:26 48.35707 15.75118 33211 ft 504 kts 125°
2026-04-16 12:26 48.31904 15.83973 33213 ft 503 kts 125°
2026-04-16 12:27 48.28744 15.91305 33212 ft 503 kts 125°
2026-04-16 12:27 48.24933 16.00124 33211 ft 503 kts 126°
2026-04-16 12:28 48.20499 16.10345 33210 ft 502 kts 126°
2026-04-16 12:28 48.17300 16.17697 33210 ft 502 kts 126°
2026-04-16 12:29 48.13477 16.26459 33209 ft 502 kts 126°
2026-04-16 12:29 48.09667 16.35158 33211 ft 503 kts 126°
2026-04-16 12:30 48.05821 16.43914 33211 ft 503 kts 126°
2026-04-16 12:30 48.01973 16.52645 33211 ft 503 kts 126°
2026-04-16 12:31 47.98115 16.61367 33211 ft 503 kts 126°
2026-04-16 12:31 47.94262 16.70051 33212 ft 500 kts 126°
2026-04-16 12:32 47.90415 16.78701 33206 ft 500 kts 126°
2026-04-16 12:32 47.86559 16.87340 33204 ft 500 kts 125°
2026-04-16 12:33 47.82704 16.95950 33203 ft 499 kts 125°
2026-04-16 12:33 47.78831 17.04574 33206 ft 500 kts 125°
2026-04-16 12:34 47.74960 17.13164 33202 ft 499 kts 125°
2026-04-16 12:34 47.71090 17.21727 33200 ft 499 kts 126°
2026-04-16 12:35 47.67206 17.30286 33200 ft 499 kts 126°
2026-04-16 12:35 47.63346 17.38871 33203 ft 500 kts 123°
2026-04-16 12:36 47.59951 17.47885 33194 ft 501 kts 118°
2026-04-16 12:36 47.56785 17.57097 33193 ft 502 kts 118°
2026-04-16 12:37 47.53630 17.66244 33189 ft 502 kts 118°
2026-04-16 12:37 47.50441 17.75443 33192 ft 502 kts 118°
2026-04-16 12:38 47.47244 17.84626 33194 ft 502 kts 118°
2026-04-16 12:38 47.44037 17.93801 33194 ft 502 kts 118°
2026-04-16 12:39 47.40819 18.02970 33190 ft 501 kts 118°
2026-04-16 12:39 47.37602 18.12107 33193 ft 500 kts 118°
2026-04-16 12:40 47.34401 18.21169 33188 ft 500 kts 118°
2026-04-16 12:40 47.31157 18.30319 33180 ft 500 kts 118°
2026-04-16 12:41 47.27952 18.39330 33179 ft 499 kts 118°
2026-04-16 12:41 47.24719 18.48389 33179 ft 498 kts 118°
2026-04-16 12:42 47.21488 18.57409 33164 ft 497 kts 118°
2026-04-16 12:42 47.18252 18.66413 33171 ft 497 kts 118°
2026-04-16 12:43 47.15015 18.75391 33168 ft 496 kts 118°
2026-04-16 12:43 47.11775 18.84346 33158 ft 496 kts 118°
2026-04-16 12:44 47.08531 18.93285 33170 ft 496 kts 118°
2026-04-16 12:44 47.05275 19.02224 33174 ft 495 kts 118°
2026-04-16 12:45 47.02022 19.11125 33170 ft 495 kts 118°
2026-04-16 12:45 46.98755 19.20035 33153 ft 495 kts 118°
2026-04-16 12:46 46.95511 19.28851 33152 ft 494 kts 118°
2026-04-16 12:46 46.92244 19.37703 33165 ft 494 kts 118°
2026-04-16 12:47 46.88967 19.46550 33150 ft 493 kts 118°
2026-04-16 12:47 46.85690 19.55369 33166 ft 493 kts 118°
2026-04-16 12:48 46.82408 19.64172 33151 ft 493 kts 118°
2026-04-16 12:48 46.79120 19.72963 33153 ft 492 kts 118°
2026-04-16 12:49 46.75834 19.81721 33151 ft 491 kts 118°
2026-04-16 12:49 46.72543 19.90464 33150 ft 490 kts 118°
2026-04-16 12:50 46.69255 19.99168 33160 ft 490 kts 118°
2026-04-16 12:50 46.65950 20.07887 33151 ft 490 kts 118°
2026-04-16 12:51 46.62673 20.16511 33152 ft 490 kts 118°
2026-04-16 12:51 46.59366 20.25184 33167 ft 490 kts 118°
2026-04-16 12:52 46.56051 20.33852 33147 ft 490 kts 118°
2026-04-16 12:52 46.52730 20.42505 33146 ft 489 kts 118°
2026-04-16 12:53 46.49405 20.51143 33146 ft 490 kts 118°
2026-04-16 12:53 46.46069 20.59779 33146 ft 490 kts 119°
2026-04-16 12:54 46.42725 20.68408 33147 ft 490 kts 118°
2026-04-16 12:54 46.39374 20.77031 33139 ft 490 kts 119°
2026-04-16 12:55 46.36014 20.85646 33136 ft 491 kts 119°
2026-04-16 12:55 46.32644 20.94263 33137 ft 491 kts 119°
2026-04-16 12:56 46.29278 21.02836 33137 ft 491 kts 119°
2026-04-16 12:56 46.26024 21.11535 33136 ft 491 kts 115°
2026-04-16 12:57 46.23271 21.20561 33130 ft 490 kts 112°
2026-04-16 12:57 46.20587 21.29619 33128 ft 490 kts 112°
2026-04-16 12:58 46.17895 21.38659 33129 ft 490 kts 112°
2026-04-16 12:58 46.15189 21.47700 33128 ft 489 kts 112°
2026-04-16 12:59 46.12481 21.56720 33128 ft 489 kts 112°
2026-04-16 13:00 46.08409 21.70214 33128 ft 488 kts 112°
2026-04-16 13:00 46.05710 21.79117 33128 ft 488 kts 112°
2026-04-16 13:01 46.02986 21.88074 33128 ft 487 kts 112°
2026-04-16 13:01 46.00257 21.97011 33128 ft 487 kts 112°
2026-04-16 13:02 45.97512 22.05970 33128 ft 487 kts 112°
2026-04-16 13:02 45.94772 22.14882 33128 ft 487 kts 112°
2026-04-16 13:03 45.92020 22.23803 33128 ft 487 kts 112°
2026-04-16 13:03 45.89261 22.32715 33128 ft 488 kts 112°
2026-04-16 13:04 45.86490 22.41636 33127 ft 489 kts 113°
2026-04-16 13:04 45.83710 22.50554 33127 ft 489 kts 113°
2026-04-16 13:05 45.80921 22.59470 33128 ft 490 kts 113°
2026-04-16 13:05 45.78114 22.68407 33127 ft 491 kts 113°
2026-04-16 13:06 45.75298 22.77347 33133 ft 492 kts 113°
2026-04-16 13:06 45.72469 22.86294 33136 ft 493 kts 113°
2026-04-16 13:07 45.69629 22.95241 33136 ft 493 kts 114°
2026-04-16 13:07 45.66774 23.04209 33136 ft 494 kts 114°
2026-04-16 13:08 45.63915 23.13157 33136 ft 494 kts 114°
2026-04-16 13:08 45.61049 23.22096 33136 ft 494 kts 114°
2026-04-16 13:09 45.58170 23.31040 33137 ft 495 kts 114°
2026-04-16 13:09 45.55308 23.39907 33138 ft 495 kts 114°
2026-04-16 13:10 45.52411 23.48848 33134 ft 496 kts 114°
2026-04-16 13:10 45.49510 23.57777 33136 ft 496 kts 114°
2026-04-16 13:11 45.46602 23.66693 33136 ft 495 kts 114°
2026-04-16 13:11 45.43685 23.75605 33131 ft 496 kts 114°
2026-04-16 13:12 45.40760 23.84515 33128 ft 496 kts 114°
2026-04-16 13:12 45.37828 23.93416 33130 ft 496 kts 114°
2026-04-16 13:13 45.34887 24.02309 33134 ft 497 kts 114°
2026-04-16 13:13 45.31930 24.11224 33137 ft 498 kts 114°
2026-04-16 13:14 45.28959 24.20151 33135 ft 499 kts 114°
2026-04-16 13:14 45.26000 24.29014 33137 ft 500 kts 115°
2026-04-16 13:15 45.23010 24.37935 33136 ft 500 kts 115°
2026-04-16 13:15 45.20008 24.46861 33137 ft 502 kts 115°
2026-04-16 13:16 45.16991 24.55804 33137 ft 503 kts 115°
2026-04-16 13:16 45.14475 24.63240 33137 ft 503 kts 115°
2026-04-16 13:17 45.11428 24.72213 33136 ft 504 kts 115°
2026-04-16 13:17 45.08373 24.81182 33135 ft 504 kts 115°
2026-04-16 13:18 45.05313 24.90136 33136 ft 505 kts 115°
2026-04-16 13:18 45.02241 24.99093 33129 ft 506 kts 115°
2026-04-16 13:19 44.99155 25.08059 33128 ft 506 kts 116°
2026-04-16 13:19 44.96081 25.16964 33128 ft 507 kts 116°
2026-04-16 13:20 44.92978 25.25924 33127 ft 508 kts 116°
2026-04-16 13:20 44.89858 25.34903 33127 ft 509 kts 116°
2026-04-16 13:21 44.86731 25.43870 33128 ft 509 kts 116°
2026-04-16 13:21 44.83588 25.52854 33128 ft 510 kts 116°
2026-04-16 13:22 44.80437 25.61831 33128 ft 511 kts 116°
2026-04-16 13:22 44.77270 25.70825 33127 ft 512 kts 116°
2026-04-16 13:23 44.74092 25.79817 33128 ft 513 kts 117°
2026-04-16 13:23 44.70903 25.88813 33127 ft 514 kts 117°
2026-04-16 13:24 44.67700 25.97817 33127 ft 515 kts 117°
2026-04-16 13:24 44.64484 26.06823 33127 ft 516 kts 117°
2026-04-16 13:25 44.61251 26.15851 33127 ft 517 kts 117°
2026-04-16 13:25 44.58006 26.24884 33128 ft 518 kts 117°
2026-04-16 13:26 44.54750 26.33916 33128 ft 518 kts 117°
2026-04-16 13:26 44.51491 26.42928 33128 ft 518 kts 117°
2026-04-16 13:27 44.48219 26.51941 33128 ft 518 kts 117°
2026-04-16 13:27 44.44964 26.60884 33128 ft 518 kts 117°
2026-04-16 13:28 44.41683 26.69867 33128 ft 518 kts 117°
2026-04-16 13:28 44.38393 26.78843 33134 ft 518 kts 117°
2026-04-16 13:29 44.35097 26.87809 33137 ft 518 kts 117°
2026-04-16 13:29 44.31794 26.96765 33146 ft 518 kts 117°
2026-04-16 13:30 44.28477 27.05730 33146 ft 518 kts 117°
2026-04-16 13:30 44.25162 27.14662 33152 ft 518 kts 117°
2026-04-16 13:31 44.21836 27.23596 33166 ft 519 kts 118°
2026-04-16 13:31 44.18501 27.32526 33153 ft 519 kts 118°
2026-04-16 13:32 44.15154 27.41455 33173 ft 520 kts 118°
2026-04-16 13:32 44.11798 27.50382 33172 ft 520 kts 118°
2026-04-16 13:33 44.08432 27.59305 33172 ft 520 kts 118°
2026-04-16 13:33 44.05054 27.68231 33175 ft 521 kts 118°
2026-04-16 13:34 44.01690 27.77093 33185 ft 521 kts 118°
2026-04-16 13:34 43.98265 27.86085 33182 ft 522 kts 119°
2026-04-16 13:35 43.94886 27.94928 33183 ft 522 kts 119°
2026-04-16 13:35 43.91464 28.03853 33178 ft 522 kts 119°
2026-04-16 13:36 43.88044 28.12747 33182 ft 522 kts 119°
2026-04-16 13:36 43.84617 28.21631 33185 ft 522 kts 119°
2026-04-16 13:37 43.81186 28.30500 33194 ft 522 kts 119°
2026-04-16 13:37 43.77746 28.39361 33195 ft 522 kts 119°
2026-04-16 13:38 43.74297 28.48201 33191 ft 522 kts 120°
2026-04-16 13:38 43.70519 28.56781 33192 ft 522 kts 124°
2026-04-16 13:39 43.66611 28.65239 33193 ft 521 kts 124°
2026-04-16 13:39 43.62723 28.73632 33192 ft 521 kts 124°
2026-04-16 13:40 43.58810 28.82070 33192 ft 522 kts 124°
2026-04-16 13:40 43.54891 28.90504 33188 ft 521 kts 124°
2026-04-16 13:41 43.50966 28.98924 33194 ft 522 kts 124°
2026-04-16 13:41 43.47025 29.07358 33189 ft 522 kts 124°
2026-04-16 13:42 43.43084 29.15765 33193 ft 522 kts 124°
2026-04-16 13:42 43.39130 29.24178 33184 ft 523 kts 125°
2026-04-16 13:43 43.35169 29.32579 33179 ft 523 kts 125°
2026-04-16 13:43 43.31200 29.40973 33172 ft 523 kts 125°
2026-04-16 13:44 43.27223 29.49363 33173 ft 524 kts 125°
2026-04-16 13:44 43.23264 29.57687 33167 ft 523 kts 125°
2026-04-16 13:45 43.19280 29.66044 33167 ft 523 kts 125°
2026-04-16 13:45 43.15289 29.74391 33164 ft 523 kts 125°
2026-04-16 13:46 43.11286 29.82741 33163 ft 523 kts 125°
2026-04-16 13:46 43.07281 29.91070 33151 ft 524 kts 125°
2026-04-16 13:47 43.03267 29.99392 33160 ft 524 kts 125°
2026-04-16 13:47 42.99233 30.07733 33152 ft 525 kts 125°
2026-04-16 13:48 42.95188 30.16075 33147 ft 526 kts 126°
2026-04-16 13:48 42.91138 30.24403 33148 ft 526 kts 126°
2026-04-16 13:49 42.87079 30.32727 33138 ft 526 kts 126°
2026-04-16 13:49 42.83013 30.41040 33137 ft 526 kts 126°
2026-04-16 13:50 42.78978 30.49367 33134 ft 526 kts 123°
2026-04-16 13:50 42.75624 30.58173 33129 ft 528 kts 114°
2026-04-16 13:51 42.73263 30.67680 33128 ft 529 kts 104°
2026-04-16 13:51 42.71950 30.77532 33130 ft 529 kts 97°
2026-04-16 13:52 42.70990 30.87461 33128 ft 529 kts 96°
2026-04-16 13:52 42.70007 30.97398 33128 ft 530 kts 97°
2026-04-16 13:53 42.68990 31.07312 33127 ft 530 kts 97°
2026-04-16 13:53 42.67953 31.17240 33120 ft 530 kts 97°
2026-04-16 13:54 42.66906 31.27165 33118 ft 530 kts 97°
2026-04-16 13:54 42.65846 31.37114 33119 ft 531 kts 97°
2026-04-16 13:55 42.64780 31.47054 33119 ft 531 kts 97°
2026-04-16 13:55 42.63705 31.56985 33119 ft 531 kts 97°
2026-04-16 13:56 42.62621 31.66912 33119 ft 530 kts 97°
2026-04-16 13:56 42.61530 31.76838 33119 ft 531 kts 97°
2026-04-16 13:57 42.60430 31.86767 33119 ft 531 kts 97°
2026-04-16 13:57 42.59326 31.96633 33118 ft 531 kts 97°
2026-04-16 13:58 42.57654 32.11570 33110 ft 532 kts 97°
2026-04-16 13:58 42.56520 32.21504 33109 ft 532 kts 98°
2026-04-16 13:59 42.55373 32.31455 33109 ft 532 kts 98°
2026-04-16 13:59 42.54220 32.41381 33110 ft 532 kts 98°
2026-04-16 14:00 42.53058 32.51311 33110 ft 532 kts 98°
2026-04-16 14:00 42.51889 32.61224 33110 ft 531 kts 98°
2026-04-16 14:01 42.50712 32.71129 33110 ft 531 kts 98°
2026-04-16 14:01 42.49525 32.81041 33110 ft 531 kts 98°
2026-04-16 14:02 42.48338 32.90879 33110 ft 532 kts 98°
2026-04-16 14:02 42.47131 33.00806 33109 ft 532 kts 98°
2026-04-16 14:03 42.45915 33.10720 33110 ft 532 kts 98°
2026-04-16 14:03 42.44693 33.20624 33108 ft 532 kts 98°
2026-04-16 14:04 42.43668 33.28867 33109 ft 533 kts 98°
2026-04-16 14:04 42.42425 33.38786 33107 ft 533 kts 98°
2026-04-16 14:05 42.41175 33.48692 33110 ft 534 kts 98°
2026-04-16 14:05 42.39917 33.58620 33110 ft 534 kts 98°
2026-04-16 14:06 42.38648 33.68553 33108 ft 535 kts 98°
2026-04-16 14:06 42.37367 33.78501 33109 ft 536 kts 98°
2026-04-16 14:07 42.36076 33.88442 33135 ft 536 kts 98°
2026-04-16 14:07 42.34783 33.98387 33143 ft 537 kts 98°
2026-04-16 14:08 42.33479 34.08352 33152 ft 536 kts 98°
2026-04-16 14:08 42.32168 34.18298 33151 ft 536 kts 98°
2026-04-16 14:09 42.30849 34.28223 33165 ft 536 kts 99°
2026-04-16 14:09 42.29529 34.38078 33165 ft 535 kts 99°
2026-04-16 14:10 42.28195 34.47988 33157 ft 534 kts 99°
2026-04-16 14:10 42.26855 34.57863 33177 ft 533 kts 99°
2026-04-16 14:11 42.25507 34.67728 33181 ft 532 kts 99°
2026-04-16 14:11 42.24150 34.77563 33169 ft 532 kts 99°
2026-04-16 14:12 42.22788 34.87392 33185 ft 531 kts 99°
2026-04-16 14:12 42.21421 34.97177 33182 ft 529 kts 99°
2026-04-16 14:13 42.20047 35.06938 33179 ft 528 kts 99°
2026-04-16 14:13 42.18667 35.16684 33188 ft 527 kts 99°
2026-04-16 14:14 42.17281 35.26395 33182 ft 527 kts 99°
2026-04-16 14:14 42.15889 35.36103 33187 ft 526 kts 100°
2026-04-16 14:15 42.14490 35.45798 33176 ft 526 kts 100°
2026-04-16 14:15 42.13090 35.55476 33181 ft 525 kts 100°
2026-04-16 14:16 42.11691 35.65072 33173 ft 525 kts 100°
2026-04-16 14:16 42.10276 35.74727 33188 ft 525 kts 100°
2026-04-16 14:17 42.08850 35.84389 33184 ft 524 kts 100°
2026-04-16 14:17 42.07420 35.94024 33183 ft 524 kts 100°
2026-04-16 14:18 42.05980 36.03669 33182 ft 524 kts 100°
2026-04-16 14:18 42.04532 36.13302 33189 ft 524 kts 100°
2026-04-16 14:19 42.03076 36.22935 33184 ft 524 kts 100°
2026-04-16 14:19 42.01613 36.32554 33181 ft 524 kts 100°
2026-04-16 14:20 42.00144 36.42160 33166 ft 524 kts 101°
2026-04-16 14:20 41.98675 36.51705 33164 ft 524 kts 101°
2026-04-16 14:21 41.97188 36.61310 33169 ft 524 kts 101°
2026-04-16 14:21 41.95692 36.70916 33183 ft 524 kts 101°
2026-04-16 14:22 41.94188 36.80519 33176 ft 523 kts 101°
2026-04-16 14:22 41.92679 36.90095 33185 ft 523 kts 101°
2026-04-16 14:23 41.91126 36.99660 33186 ft 523 kts 103°
2026-04-16 14:23 41.88972 37.09014 33179 ft 523 kts 110°
2026-04-16 14:24 41.86203 37.17984 33187 ft 522 kts 113°
2026-04-16 14:24 41.83328 37.27010 33181 ft 522 kts 113°
2026-04-16 14:25 41.80505 37.35905 33183 ft 521 kts 113°
2026-04-16 14:25 41.77669 37.44845 33184 ft 520 kts 113°
2026-04-16 14:26 41.74832 37.53762 33183 ft 520 kts 113°
2026-04-16 14:26 41.71988 37.62672 33183 ft 519 kts 113°
2026-04-16 14:27 41.69139 37.71571 33189 ft 519 kts 113°
2026-04-16 14:27 41.66291 37.80441 33186 ft 519 kts 114°
2026-04-16 14:28 41.63433 37.89307 33182 ft 518 kts 114°
2026-04-16 14:28 41.60576 37.98146 33186 ft 518 kts 114°
2026-04-16 14:29 41.57720 38.06954 33185 ft 518 kts 114°
2026-04-16 14:29 41.54848 38.15778 33184 ft 518 kts 114°
2026-04-16 14:30 41.51962 38.24618 33185 ft 519 kts 114°
2026-04-16 14:30 41.49070 38.33445 33183 ft 519 kts 114°
2026-04-16 14:31 41.46167 38.42282 33185 ft 519 kts 114°
2026-04-16 14:31 41.43256 38.51111 33180 ft 520 kts 114°
2026-04-16 14:32 41.40336 38.59940 33181 ft 520 kts 114°
2026-04-16 14:32 41.37404 38.68778 33186 ft 521 kts 114°
2026-04-16 14:33 41.34482 38.77551 33182 ft 523 kts 114°
2026-04-16 14:33 41.31554 38.86446 33183 ft 525 kts 114°
2026-04-16 14:34 41.28644 38.95370 33174 ft 525 kts 114°
2026-04-16 14:34 41.25717 39.04298 33184 ft 526 kts 114°
2026-04-16 14:35 41.22776 39.13217 33184 ft 526 kts 114°
2026-04-16 14:35 41.19787 39.22097 33175 ft 526 kts 115°
2026-04-16 14:36 41.16693 39.30917 33181 ft 526 kts 115°
2026-04-16 14:36 41.13592 39.39733 33188 ft 527 kts 115°
2026-04-16 14:37 41.10495 39.48548 33183 ft 526 kts 115°
2026-04-16 14:37 41.07414 39.57295 33189 ft 526 kts 116°
2026-04-16 14:38 41.04307 39.66086 33185 ft 527 kts 115°
2026-04-16 14:38 41.01595 39.75117 33184 ft 527 kts 107°
2026-04-16 14:39 40.99833 39.84550 33183 ft 527 kts 99°
2026-04-16 14:39 40.99078 39.94190 33179 ft 525 kts 90°
2026-04-16 14:40 40.98888 40.03878 33179 ft 525 kts 89°
2026-04-16 14:40 40.98699 40.13557 33181 ft 525 kts 90°
2026-04-16 14:41 40.98458 40.23234 33169 ft 525 kts 90°
2026-04-16 14:41 40.98193 40.32900 33179 ft 525 kts 90°
2026-04-16 14:42 40.97920 40.42575 33179 ft 525 kts 90°
2026-04-16 14:42 40.97638 40.52249 33176 ft 525 kts 90°
2026-04-16 14:43 40.97355 40.61777 33171 ft 525 kts 90°
2026-04-16 14:43 40.97055 40.71559 33182 ft 525 kts 91°
2026-04-16 14:44 40.96752 40.81222 33189 ft 524 kts 91°
2026-04-16 14:44 40.96438 40.90883 33174 ft 525 kts 91°
2026-04-16 14:45 40.96119 41.00566 33185 ft 525 kts 91°
2026-04-16 14:45 40.95790 41.10223 33174 ft 524 kts 91°
2026-04-16 14:46 40.95456 41.19806 33182 ft 524 kts 91°
2026-04-16 14:46 40.95112 41.29449 33186 ft 524 kts 91°
2026-04-16 14:47 40.94759 41.39095 33166 ft 524 kts 91°
2026-04-16 14:47 40.94400 41.48729 33170 ft 524 kts 91°
2026-04-16 14:48 40.94033 41.58336 33169 ft 519 kts 91°
2026-04-16 14:48 40.93660 41.67870 33170 ft 518 kts 91°
2026-04-16 14:49 40.93281 41.77400 33169 ft 517 kts 91°
2026-04-16 14:49 40.92895 41.86910 33162 ft 518 kts 91°
2026-04-16 14:50 40.92500 41.96436 33160 ft 518 kts 91°
2026-04-16 14:50 40.92096 42.05971 33169 ft 518 kts 91°
2026-04-16 14:51 40.91684 42.15497 33173 ft 518 kts 91°
2026-04-16 14:51 40.91266 42.25020 33164 ft 518 kts 91°
2026-04-16 14:53 40.89590 42.61475 33173 ft 517 kts 92°
2026-04-16 14:54 40.89134 42.70966 33168 ft 517 kts 92°
2026-04-16 14:54 40.88674 42.80398 33168 ft 517 kts 92°
2026-04-16 14:55 40.88203 42.89888 33174 ft 517 kts 92°
2026-04-16 14:55 40.87724 42.99384 33182 ft 517 kts 92°
2026-04-16 14:56 40.87238 43.08855 33176 ft 516 kts 92°
2026-04-16 14:56 40.86744 43.18341 33179 ft 517 kts 92°
2026-04-16 14:57 40.86241 43.27834 33195 ft 517 kts 92°
2026-04-16 14:57 40.85732 43.37302 33190 ft 516 kts 92°
2026-04-16 14:58 40.84954 43.51509 33194 ft 516 kts 92°
2026-04-16 14:59 40.84424 43.60993 33198 ft 517 kts 92°
2026-04-16 14:59 40.83900 43.70479 33206 ft 516 kts 91°
2026-04-16 15:00 40.83603 43.79891 33210 ft 516 kts 90°
2026-04-16 15:00 40.83321 43.89385 33212 ft 516 kts 90°
2026-04-16 15:01 40.83006 43.98867 33209 ft 516 kts 90°
2026-04-16 15:01 40.82680 44.08331 33210 ft 515 kts 90°
2026-04-16 15:02 40.82345 44.17809 33200 ft 515 kts 90°
2026-04-16 15:02 40.82002 44.27286 33198 ft 515 kts 90°
2026-04-16 15:03 40.81653 44.36745 33192 ft 515 kts 91°
2026-04-16 15:03 40.81297 44.46204 33199 ft 514 kts 91°
2026-04-16 15:04 40.80936 44.55621 33200 ft 512 kts 91°
2026-04-16 15:04 40.80565 44.65008 33173 ft 512 kts 91°
2026-04-16 15:05 40.80189 44.74351 33165 ft 512 kts 91°
2026-04-16 15:05 40.79804 44.83749 33152 ft 512 kts 91°
2026-04-16 15:06 40.79411 44.93142 33162 ft 512 kts 91°
2026-04-16 15:06 40.79010 45.02530 33171 ft 511 kts 91°
2026-04-16 15:07 40.78604 45.11912 33167 ft 511 kts 91°
2026-04-16 15:07 40.78188 45.21306 33174 ft 511 kts 91°
2026-04-16 15:08 40.77766 45.30679 33173 ft 511 kts 91°
2026-04-16 15:08 40.77335 45.40062 33181 ft 511 kts 91°
2026-04-16 15:09 40.76889 45.49375 33188 ft 511 kts 92°
2026-04-16 15:09 40.76120 45.58722 33189 ft 512 kts 95°
2026-04-16 15:10 40.75270 45.68059 33190 ft 512 kts 95°
2026-04-16 15:10 40.74413 45.77404 33184 ft 512 kts 95°
2026-04-16 15:11 40.73555 45.86749 33188 ft 512 kts 95°
2026-04-16 15:11 40.72691 45.96092 33177 ft 512 kts 95°
2026-04-16 15:12 40.71818 46.05444 33181 ft 512 kts 95°
2026-04-16 15:12 40.70940 46.14763 33175 ft 510 kts 95°
2026-04-16 15:13 40.70057 46.24059 33181 ft 510 kts 95°
2026-04-16 15:13 40.69171 46.33304 33179 ft 510 kts 95°
2026-04-16 15:14 40.68274 46.42590 33189 ft 510 kts 95°
2026-04-16 15:14 40.67369 46.51880 33188 ft 510 kts 96°
2026-04-16 15:15 40.66458 46.61143 33180 ft 509 kts 96°
2026-04-16 15:15 40.65540 46.70405 33188 ft 509 kts 96°
2026-04-16 15:16 40.64616 46.79649 33182 ft 508 kts 96°
2026-04-16 15:16 40.63685 46.88889 33181 ft 508 kts 96°
2026-04-16 15:17 40.62748 46.98109 33178 ft 507 kts 96°
2026-04-16 15:17 40.61803 47.07331 33183 ft 507 kts 96°
2026-04-16 15:18 40.60882 47.16470 33182 ft 506 kts 95°
2026-04-16 15:18 40.60434 47.25709 33185 ft 505 kts 90°
2026-04-16 15:19 40.60186 47.34959 33185 ft 505 kts 90°
2026-04-16 15:19 40.59930 47.44213 33190 ft 505 kts 90°
2026-04-16 15:20 40.59657 47.53486 33191 ft 505 kts 90°
2026-04-16 15:20 40.59375 47.62739 33201 ft 505 kts 90°
2026-04-16 15:21 40.59085 47.72004 33200 ft 506 kts 91°
2026-04-16 15:21 40.58786 47.81270 33209 ft 506 kts 91°
2026-04-16 15:22 40.58287 47.90476 33209 ft 508 kts 96°
2026-04-16 15:22 40.57028 47.99651 33211 ft 510 kts 103°
2026-04-16 15:23 40.55015 48.08621 33211 ft 510 kts 107°
2026-04-16 15:23 40.52812 48.17489 33211 ft 509 kts 107°
2026-04-16 15:24 40.50621 48.26360 33211 ft 509 kts 107°
2026-04-16 15:24 40.48425 48.35235 33216 ft 510 kts 107°
2026-04-16 15:25 40.46223 48.44105 33219 ft 510 kts 107°
2026-04-16 15:25 40.44034 48.52889 33218 ft 509 kts 107°
2026-04-16 15:26 40.41824 48.61722 33220 ft 509 kts 107°
2026-04-16 15:26 40.39608 48.70552 33223 ft 508 kts 108°
2026-04-16 15:27 40.37387 48.79365 33228 ft 507 kts 108°
2026-04-16 15:27 40.35165 48.88149 33228 ft 507 kts 108°
2026-04-16 15:28 40.32936 48.96934 33228 ft 507 kts 108°
2026-04-16 15:28 40.30697 49.05710 33230 ft 507 kts 108°
2026-04-16 15:29 40.28436 49.14471 33239 ft 507 kts 108°
2026-04-16 15:29 40.26159 49.23237 33235 ft 507 kts 108°
2026-04-16 15:30 40.23906 49.31953 33237 ft 508 kts 108°
2026-04-16 15:30 40.21634 49.40722 33238 ft 508 kts 108°
2026-04-16 15:31 40.19551 49.49584 33235 ft 509 kts 103°
2026-04-16 15:31 40.18195 49.58677 33236 ft 508 kts 97°
2026-04-16 15:32 40.17344 49.67882 33241 ft 509 kts 96°
2026-04-16 15:32 40.16515 49.77081 33237 ft 510 kts 96°
2026-04-16 15:33 40.15665 49.86300 33240 ft 510 kts 96°
2026-04-16 15:33 40.14799 49.95532 33239 ft 511 kts 96°
2026-04-16 15:34 40.13922 50.04779 33240 ft 511 kts 96°
2026-04-16 15:34 40.13046 50.13937 33237 ft 511 kts 96°
2026-04-16 15:35 40.12156 50.23158 33236 ft 511 kts 96°
2026-04-16 15:35 40.11259 50.32376 33235 ft 510 kts 96°
2026-04-16 15:36 40.10356 50.41581 33235 ft 510 kts 96°
2026-04-16 15:36 40.09447 50.50773 33237 ft 509 kts 97°
2026-04-16 15:37 40.08530 50.59969 33239 ft 509 kts 97°
2026-04-16 15:37 40.07607 50.69148 33237 ft 509 kts 97°
2026-04-16 15:38 40.06685 50.78245 33235 ft 508 kts 97°
2026-04-16 15:38 40.05750 50.87403 33241 ft 508 kts 97°
2026-04-16 15:39 40.04806 50.96563 33240 ft 508 kts 97°
2026-04-16 15:39 40.03856 51.05722 33233 ft 509 kts 98°
2026-04-16 15:40 40.02896 51.14891 33227 ft 509 kts 98°
2026-04-16 15:40 40.01929 51.24060 33228 ft 510 kts 98°
2026-04-16 15:41 40.00952 51.33250 33230 ft 511 kts 98°
2026-04-16 15:41 39.99965 51.42452 33229 ft 511 kts 99°
2026-04-16 15:42 39.99062 51.50099 33224 ft 515 kts 102°
2026-04-16 15:42 39.97454 51.59233 33229 ft 517 kts 105°
2026-04-16 15:43 39.95736 51.68332 33225 ft 516 kts 105°
2026-04-16 15:43 39.94021 51.77409 33220 ft 515 kts 105°
2026-04-16 15:44 39.92306 51.86481 33221 ft 514 kts 105°
2026-04-16 15:44 39.90591 51.95530 33219 ft 513 kts 106°
2026-04-16 15:45 39.88868 52.04578 33219 ft 513 kts 106°
2026-04-16 15:45 39.87139 52.13620 33219 ft 513 kts 106°
2026-04-16 15:46 39.85400 52.22667 33218 ft 514 kts 106°
2026-04-16 15:46 39.83655 52.31714 33214 ft 515 kts 106°
2026-04-16 15:47 39.81899 52.40770 33211 ft 516 kts 106°
2026-04-16 15:47 39.80143 52.49788 33212 ft 517 kts 106°
2026-04-16 15:48 39.78365 52.58879 33210 ft 518 kts 106°
2026-04-16 15:48 39.76577 52.67974 33209 ft 520 kts 106°
2026-04-16 15:49 39.74776 52.77100 33211 ft 521 kts 106°
2026-04-16 15:49 39.72965 52.86255 33212 ft 522 kts 106°
2026-04-16 15:50 39.71187 52.95422 33211 ft 523 kts 106°
2026-04-16 15:50 39.69402 53.04605 33210 ft 523 kts 106°
2026-04-16 15:51 39.67617 53.13728 33210 ft 523 kts 106°
2026-04-16 15:51 39.65815 53.22891 33210 ft 523 kts 106°
2026-04-16 15:52 39.64006 53.32046 33210 ft 523 kts 107°
2026-04-16 15:52 39.62189 53.41196 33209 ft 522 kts 107°
2026-04-16 15:53 39.60367 53.50334 33212 ft 522 kts 107°
2026-04-16 15:53 39.58541 53.59448 33210 ft 521 kts 107°
2026-04-16 15:54 39.56709 53.68553 33211 ft 521 kts 107°
2026-04-16 15:54 39.54871 53.77652 33211 ft 520 kts 107°
2026-04-16 15:55 39.53042 53.86664 33211 ft 520 kts 107°
2026-04-16 15:55 39.51194 53.95733 33210 ft 520 kts 107°
2026-04-16 15:56 39.49330 54.04818 33212 ft 520 kts 107°
2026-04-16 15:56 39.47444 54.13873 33210 ft 521 kts 107°
2026-04-16 15:57 39.45543 54.22949 33209 ft 521 kts 107°
2026-04-16 15:57 39.43635 54.32018 33210 ft 522 kts 107°
2026-04-16 15:58 39.41718 54.41107 33209 ft 523 kts 107°
2026-04-16 15:58 39.39791 54.50201 33210 ft 524 kts 107°
2026-04-16 15:59 39.36890 54.63817 33210 ft 525 kts 107°
2026-04-16 15:59 39.34937 54.72939 33210 ft 526 kts 108°
2026-04-16 16:00 39.32976 54.82060 33211 ft 527 kts 108°
2026-04-16 16:00 39.31001 54.91203 33201 ft 528 kts 108°
2026-04-16 16:01 39.29014 55.00361 33200 ft 528 kts 108°
2026-04-16 16:01 39.27026 55.09498 33199 ft 528 kts 108°
2026-04-16 16:02 39.25027 55.18641 33200 ft 529 kts 108°
2026-04-16 16:02 39.23020 55.27781 33200 ft 529 kts 108°
2026-04-16 16:03 39.21007 55.36910 33199 ft 529 kts 108°
2026-04-16 16:03 39.18997 55.45993 33200 ft 529 kts 108°
2026-04-16 16:04 39.16969 55.55112 33199 ft 529 kts 108°
2026-04-16 16:04 39.14928 55.64242 33194 ft 529 kts 108°
2026-04-16 16:05 39.12879 55.73366 33192 ft 530 kts 108°
2026-04-16 16:05 39.10823 55.82485 33192 ft 530 kts 108°
2026-04-16 16:06 39.08758 55.91604 33190 ft 530 kts 108°
2026-04-16 16:06 39.06681 56.00748 33180 ft 531 kts 108°
2026-04-16 16:07 39.04596 56.09884 33183 ft 531 kts 109°
2026-04-16 16:07 39.02504 56.19014 33179 ft 531 kts 109°
2026-04-16 16:08 39.00403 56.28142 33181 ft 532 kts 109°
2026-04-16 16:08 38.98047 56.37119 33175 ft 532 kts 112°
2026-04-16 16:09 38.95577 56.46089 33173 ft 532 kts 112°
2026-04-16 16:09 38.93094 56.55082 33173 ft 532 kts 112°
2026-04-16 16:10 38.90611 56.64068 33160 ft 533 kts 112°
2026-04-16 16:10 38.88123 56.73048 33159 ft 533 kts 112°
2026-04-16 16:11 38.85628 56.82021 33164 ft 533 kts 112°
2026-04-16 16:11 38.83126 56.90993 33171 ft 534 kts 112°
2026-04-16 16:12 38.80612 56.99976 33151 ft 534 kts 112°
2026-04-16 16:12 38.78088 57.08961 33151 ft 534 kts 112°
2026-04-16 16:13 38.75562 57.17924 33151 ft 534 kts 112°
2026-04-16 16:13 38.73027 57.26890 33153 ft 534 kts 112°
2026-04-16 16:14 38.70486 57.35849 33151 ft 535 kts 113°
2026-04-16 16:14 38.67935 57.44805 33161 ft 535 kts 113°
2026-04-16 16:15 38.65393 57.53702 33151 ft 535 kts 113°
2026-04-16 16:15 38.62826 57.62656 33161 ft 536 kts 113°
2026-04-16 16:16 38.60010 57.71472 33152 ft 534 kts 117°
2026-04-16 16:16 38.56970 57.80151 33152 ft 534 kts 118°
2026-04-16 16:17 38.53920 57.88820 33151 ft 535 kts 118°
2026-04-16 16:17 38.50868 57.97498 33153 ft 535 kts 118°
2026-04-16 16:18 38.47809 58.06184 33170 ft 535 kts 118°
2026-04-16 16:18 38.44751 58.14843 33192 ft 535 kts 118°
2026-04-16 16:19 38.41680 58.23505 33206 ft 535 kts 118°
2026-04-16 16:19 38.38323 58.31868 33211 ft 531 kts 125°
2026-04-16 16:20 38.34529 58.39945 33212 ft 530 kts 126°
2026-04-16 16:20 38.30714 58.47991 33212 ft 530 kts 126°
2026-04-16 16:21 38.26908 58.56028 33211 ft 530 kts 126°
2026-04-16 16:21 38.23103 58.64055 33211 ft 529 kts 126°
2026-04-16 16:22 38.19293 58.72081 33210 ft 529 kts 126°
2026-04-16 16:22 38.15483 58.80090 33211 ft 528 kts 126°
2026-04-16 16:23 38.11698 58.88022 33210 ft 527 kts 126°
2026-04-16 16:23 38.07890 58.95983 33210 ft 527 kts 126°
2026-04-16 16:24 38.04066 59.03960 33212 ft 527 kts 126°
2026-04-16 16:24 38.00244 59.11914 33211 ft 526 kts 126°
2026-04-16 16:25 37.96420 59.19857 33204 ft 528 kts 126°
2026-04-16 16:25 37.92581 59.27798 33203 ft 528 kts 127°
2026-04-16 16:26 37.88646 59.35650 33201 ft 525 kts 130°
2026-04-16 16:26 37.84289 59.43038 33205 ft 522 kts 133°
2026-04-16 16:27 37.79877 59.50341 33199 ft 522 kts 133°
2026-04-16 16:27 37.75467 59.57636 33202 ft 522 kts 133°
2026-04-16 16:28 37.71056 59.64928 33192 ft 522 kts 133°
2026-04-16 16:28 37.66646 59.72210 33190 ft 522 kts 133°
2026-04-16 16:29 37.62261 59.79435 33195 ft 522 kts 133°
2026-04-16 16:29 37.57843 59.86698 33195 ft 521 kts 133°
2026-04-16 16:30 37.53417 59.93958 33192 ft 521 kts 133°
2026-04-16 16:30 37.48986 60.01211 33196 ft 521 kts 133°
2026-04-16 16:31 37.44554 60.08452 33195 ft 521 kts 133°
2026-04-16 16:31 37.40873 60.14454 33194 ft 520 kts 134°
2026-04-16 16:32 37.36444 60.21659 33191 ft 520 kts 134°
2026-04-16 16:32 37.32009 60.28855 33187 ft 520 kts 134°
2026-04-16 16:33 37.27572 60.36043 33184 ft 520 kts 134°
2026-04-16 16:33 37.23136 60.43212 33177 ft 519 kts 134°
2026-04-16 16:34 37.18701 60.50364 33187 ft 519 kts 134°
2026-04-16 16:34 37.14258 60.57518 33182 ft 518 kts 134°
2026-04-16 16:35 37.09851 60.64594 33189 ft 518 kts 134°
2026-04-16 16:35 37.05406 60.71718 33182 ft 518 kts 134°
2026-04-16 16:36 37.00953 60.78839 33187 ft 518 kts 134°
2026-04-16 16:36 36.96567 60.86014 33178 ft 520 kts 131°
2026-04-16 16:37 36.92397 60.93426 33181 ft 521 kts 131°
2026-04-16 16:37 36.88230 61.00855 33185 ft 520 kts 131°
2026-04-16 16:38 36.84066 61.08248 33183 ft 520 kts 131°
2026-04-16 16:38 36.79927 61.15574 33180 ft 519 kts 131°
2026-04-16 16:39 36.75752 61.22947 33181 ft 519 kts 131°
2026-04-16 16:39 36.71576 61.30308 33186 ft 519 kts 131°
2026-04-16 16:40 36.67398 61.37654 33185 ft 519 kts 131°
2026-04-16 16:40 36.63213 61.44994 33187 ft 519 kts 131°
2026-04-16 16:41 36.58989 61.52285 33178 ft 517 kts 133°
2026-04-16 16:41 36.54738 61.59512 33187 ft 517 kts 133°
2026-04-16 16:42 36.50481 61.66743 33187 ft 517 kts 133°
2026-04-16 16:42 36.46230 61.73958 33184 ft 516 kts 133°
2026-04-16 16:43 36.42005 61.81116 33186 ft 516 kts 133°
2026-04-16 16:43 36.37753 61.88305 33184 ft 516 kts 133°
2026-04-16 16:44 36.33493 61.95495 33172 ft 516 kts 133°
2026-04-16 16:44 36.29233 62.02670 33173 ft 515 kts 133°
2026-04-16 16:45 36.24973 62.09826 33174 ft 515 kts 133°
2026-04-16 16:45 36.20708 62.16978 33168 ft 515 kts 133°
2026-04-16 16:46 36.16443 62.24115 33173 ft 515 kts 133°
2026-04-16 16:46 36.12172 62.31248 33168 ft 515 kts 133°
2026-04-16 16:47 36.07900 62.38367 33172 ft 515 kts 133°
2026-04-16 16:47 36.03617 62.45492 33162 ft 516 kts 133°
2026-04-16 16:48 35.99327 62.52610 33151 ft 516 kts 133°
2026-04-16 16:48 35.95032 62.59720 33171 ft 515 kts 133°
2026-04-16 16:49 35.90747 62.66806 33153 ft 514 kts 133°
2026-04-16 16:49 35.86468 62.73864 33152 ft 514 kts 133°
2026-04-16 16:50 35.82209 62.80876 33149 ft 513 kts 134°
2026-04-16 16:50 35.77926 62.87911 33147 ft 513 kts 134°
2026-04-16 16:51 35.73637 62.94941 33146 ft 513 kts 134°
2026-04-16 16:51 35.69340 63.01972 33147 ft 513 kts 134°
2026-04-16 16:52 35.65040 63.08993 33145 ft 513 kts 134°
2026-04-16 16:52 35.60746 63.15992 33141 ft 512 kts 134°
2026-04-16 16:53 35.56449 63.22952 33137 ft 510 kts 134°
2026-04-16 16:53 35.52116 63.29869 33136 ft 510 kts 134°
2026-04-16 16:54 35.47777 63.36781 33138 ft 511 kts 134°
2026-04-16 16:54 35.43440 63.43684 33130 ft 510 kts 134°
2026-04-16 16:55 35.39103 63.50575 33128 ft 510 kts 134°
2026-04-16 16:55 35.34764 63.57455 33127 ft 509 kts 134°
2026-04-16 16:56 35.30423 63.64324 33126 ft 509 kts 134°
2026-04-16 16:56 35.26091 63.71195 33128 ft 510 kts 134°
2026-04-16 16:57 35.19612 63.81472 33121 ft 510 kts 134°
2026-04-16 16:58 35.15274 63.88333 33117 ft 510 kts 134°
2026-04-16 16:58 35.10929 63.95194 33118 ft 510 kts 134°
2026-04-16 16:59 35.06566 64.02068 33120 ft 510 kts 134°
2026-04-16 16:59 35.02226 64.08893 33116 ft 508 kts 135°
2026-04-16 17:00 34.97878 64.15714 33108 ft 508 kts 134°
2026-04-16 17:00 34.93533 64.22520 33101 ft 508 kts 135°
2026-04-16 17:01 34.89190 64.29309 33104 ft 508 kts 135°
2026-04-16 17:01 34.84843 64.36091 33112 ft 507 kts 135°
2026-04-16 17:02 34.80492 64.42867 33097 ft 507 kts 135°
2026-04-16 17:02 34.76133 64.49643 33096 ft 508 kts 135°
2026-04-16 17:03 34.71802 64.56359 33097 ft 507 kts 135°
2026-04-16 17:03 34.67441 64.63113 33101 ft 507 kts 135°
2026-04-16 17:04 34.63077 64.69860 33100 ft 507 kts 135°
2026-04-16 17:04 34.58709 64.76597 33094 ft 507 kts 135°
2026-04-16 17:05 34.54335 64.83329 33091 ft 507 kts 135°
2026-04-16 17:05 34.49965 64.90047 33095 ft 507 kts 135°
2026-04-16 17:06 34.45578 64.96758 33088 ft 507 kts 135°
2026-04-16 17:06 34.41181 65.03470 33082 ft 507 kts 135°
2026-04-16 17:07 34.36824 65.10109 33083 ft 506 kts 135°
2026-04-16 17:07 34.32437 65.16785 33079 ft 506 kts 135°
2026-04-16 17:08 34.28046 65.23452 33082 ft 506 kts 135°
2026-04-16 17:08 34.23649 65.30118 33082 ft 506 kts 135°
2026-04-16 17:09 34.19252 65.36770 33081 ft 506 kts 135°
2026-04-16 17:09 34.14859 65.43404 33075 ft 505 kts 135°
2026-04-16 17:10 34.10460 65.50037 33072 ft 505 kts 135°
2026-04-16 17:10 34.06060 65.56658 33071 ft 505 kts 134°
2026-04-16 17:11 34.01660 65.63281 33074 ft 505 kts 134°
2026-04-16 17:11 33.97260 65.69894 33065 ft 505 kts 134°
2026-04-16 17:12 33.92856 65.76502 33060 ft 505 kts 134°
2026-04-16 17:12 33.88481 65.83056 33062 ft 505 kts 134°
2026-04-16 17:13 33.84057 65.89669 33423 ft 507 kts 134°
2026-04-16 17:13 33.81849 65.92969 33880 ft 504 kts 135°
2026-04-16 17:13 33.79657 65.96247 34322 ft 501 kts 135°
2026-04-16 17:13 33.77475 65.99501 34697 ft 499 kts 135°
2026-04-16 17:14 33.75295 66.02745 35023 ft 499 kts 135°
2026-04-16 17:14 33.73109 66.05994 35349 ft 499 kts 135°
2026-04-16 17:14 33.70925 66.09237 35669 ft 498 kts 135°
2026-04-16 17:14 33.68745 66.12475 35981 ft 498 kts 135°
2026-04-16 17:15 33.66565 66.15708 36048 ft 498 kts 135°
2026-04-16 17:15 33.62201 66.22169 36046 ft 498 kts 135°
2026-04-16 17:16 33.57836 66.28624 36031 ft 498 kts 135°
2026-04-16 17:16 33.53464 66.35080 36034 ft 498 kts 135°
2026-04-16 17:17 33.49080 66.41538 36045 ft 499 kts 135°
2026-04-16 17:17 33.44695 66.47985 36032 ft 498 kts 135°
2026-04-16 17:18 33.40331 66.54361 36032 ft 499 kts 135°
2026-04-16 17:18 33.35917 66.60799 36023 ft 499 kts 135°
2026-04-16 17:19 33.31500 66.67230 36029 ft 499 kts 135°
2026-04-16 17:19 33.27086 66.73649 36031 ft 499 kts 135°
2026-04-16 17:20 33.22670 66.80060 36025 ft 499 kts 135°
2026-04-16 17:20 33.18993 66.85389 36028 ft 500 kts 136°
2026-04-16 17:21 33.14560 66.91803 36019 ft 500 kts 135°
2026-04-16 17:21 33.10127 66.98206 36017 ft 500 kts 135°
2026-04-16 17:22 33.05679 67.04619 36017 ft 500 kts 136°
2026-04-16 17:22 33.01219 67.11038 36012 ft 500 kts 136°
2026-04-16 17:23 32.96770 67.17432 36012 ft 500 kts 136°
2026-04-16 17:23 32.92347 67.23776 36006 ft 500 kts 136°
2026-04-16 17:24 32.87891 67.30156 36008 ft 501 kts 136°
2026-04-16 17:24 32.83424 67.36542 35997 ft 501 kts 136°
2026-04-16 17:25 32.78958 67.42915 35992 ft 501 kts 136°
2026-04-16 17:25 32.74426 67.49211 35991 ft 500 kts 137°
2026-04-16 17:26 32.69807 67.55377 35980 ft 501 kts 138°
2026-04-16 17:26 32.67481 67.58479 36122 ft 502 kts 137°
2026-04-16 17:26 32.65165 67.61578 36461 ft 500 kts 138°
2026-04-16 17:26 32.62859 67.64670 36798 ft 498 kts 138°
2026-04-16 17:27 32.60571 67.67736 36979 ft 494 kts 138°
2026-04-16 17:27 32.56039 67.73800 36973 ft 488 kts 138°
2026-04-16 17:28 32.51521 67.79827 36970 ft 489 kts 138°
2026-04-16 17:28 32.47118 67.86011 36966 ft 491 kts 136°
2026-04-16 17:29 32.42771 67.92263 36964 ft 491 kts 136°
2026-04-16 17:29 32.38445 67.98475 36957 ft 491 kts 136°
2026-04-16 17:30 32.34084 68.04725 36953 ft 491 kts 136°
2026-04-16 17:30 32.29724 68.10959 36954 ft 491 kts 136°
2026-04-16 17:31 32.25355 68.17197 36945 ft 491 kts 136°
2026-04-16 17:31 32.20993 68.23414 36944 ft 491 kts 136°
2026-04-16 17:32 32.16619 68.29637 36937 ft 491 kts 136°
2026-04-16 17:32 32.12275 68.35807 36934 ft 491 kts 136°
2026-04-16 17:33 32.07897 68.42016 36915 ft 491 kts 136°
2026-04-16 17:33 32.03519 68.48215 36916 ft 491 kts 136°
2026-04-16 17:34 31.99130 68.54419 36914 ft 491 kts 136°
2026-04-16 17:34 31.94752 68.60601 36917 ft 491 kts 136°
2026-04-16 17:35 31.90366 68.66779 36899 ft 490 kts 137°
2026-04-16 17:35 31.85981 68.72947 36895 ft 491 kts 137°
2026-04-16 17:36 31.81622 68.79066 36897 ft 491 kts 137°
2026-04-16 17:36 31.77231 68.85224 36891 ft 491 kts 137°
2026-04-16 17:37 31.72839 68.91373 36894 ft 490 kts 137°
2026-04-16 17:37 31.68442 68.97516 36887 ft 490 kts 137°
2026-04-16 17:38 31.64091 69.03731 36884 ft 493 kts 135°
2026-04-16 17:38 31.59858 69.10068 36892 ft 493 kts 135°
2026-04-16 17:39 31.55617 69.16401 36884 ft 493 kts 135°
2026-04-16 17:39 31.51352 69.22728 36877 ft 493 kts 136°
2026-04-16 17:40 31.47086 69.29038 36879 ft 493 kts 136°
2026-04-16 17:40 31.42812 69.35348 36874 ft 493 kts 136°
2026-04-16 17:41 31.38522 69.41619 36861 ft 492 kts 138°
2026-04-16 17:41 31.33860 69.47409 36848 ft 484 kts 145°
2026-04-16 17:42 31.28808 69.52463 36847 ft 478 kts 149°
2026-04-16 17:42 31.23628 69.57350 36842 ft 478 kts 149°
2026-04-16 17:43 31.18450 69.62241 36841 ft 478 kts 149°
2026-04-16 17:43 31.13272 69.67132 36837 ft 479 kts 149°
2026-04-16 17:44 31.08093 69.72023 36836 ft 478 kts 149°
2026-04-16 17:44 31.02918 69.76902 36830 ft 477 kts 149°
2026-04-16 17:45 30.97761 69.81760 36833 ft 476 kts 150°
2026-04-16 17:45 30.92634 69.86581 36829 ft 476 kts 150°
2026-04-16 17:46 30.87475 69.91423 36833 ft 476 kts 150°
2026-04-16 17:46 30.82317 69.96260 36834 ft 475 kts 150°
2026-04-16 17:47 30.77158 70.01092 36830 ft 475 kts 150°
2026-04-16 17:47 30.72010 70.05909 36829 ft 475 kts 150°
2026-04-16 17:48 30.66857 70.10717 36830 ft 474 kts 151°
2026-04-16 17:48 30.61714 70.15510 36830 ft 474 kts 151°
2026-04-16 17:49 30.56570 70.20298 36833 ft 473 kts 151°
2026-04-16 17:49 30.51433 70.25074 36814 ft 473 kts 151°
2026-04-16 17:50 30.46330 70.29813 36814 ft 473 kts 151°
2026-04-16 17:50 30.41186 70.34581 36812 ft 473 kts 151°
2026-04-16 17:51 30.36050 70.39337 36814 ft 472 kts 151°
2026-04-16 17:51 30.30922 70.44079 36810 ft 472 kts 151°
2026-04-16 17:52 30.25784 70.48821 36813 ft 473 kts 151°
2026-04-16 17:52 30.20641 70.53581 36818 ft 473 kts 150°
2026-04-16 17:53 30.15541 70.58410 36810 ft 474 kts 150°
2026-04-16 17:53 30.10437 70.63250 36804 ft 474 kts 150°
2026-04-16 17:54 30.05362 70.68047 36803 ft 474 kts 150°
2026-04-16 17:54 30.00257 70.72862 36805 ft 474 kts 150°
2026-04-16 17:55 29.95143 70.77680 36805 ft 473 kts 150°
2026-04-16 17:55 29.90037 70.82481 36808 ft 474 kts 150°
2026-04-16 17:56 29.84923 70.87283 36807 ft 474 kts 150°
2026-04-16 17:56 29.77247 70.94480 36802 ft 474 kts 151°
2026-04-16 17:57 29.72126 70.99274 36802 ft 475 kts 151°
2026-04-16 17:57 29.67052 71.04101 36801 ft 479 kts 148°
2026-04-16 17:58 29.62061 71.09197 36803 ft 479 kts 148°
2026-04-16 17:58 29.57073 71.14294 36805 ft 479 kts 148°
2026-04-16 17:59 29.52087 71.19380 36804 ft 479 kts 148°
2026-04-16 17:59 29.47097 71.24462 36803 ft 480 kts 148°
2026-04-16 18:00 29.42087 71.29556 36805 ft 480 kts 148°
2026-04-16 18:00 29.37076 71.34646 36803 ft 480 kts 148°
2026-04-16 18:01 29.32065 71.39729 36806 ft 480 kts 148°
2026-04-16 18:01 29.27058 71.44813 36809 ft 481 kts 148°
2026-04-16 18:02 29.22098 71.49889 36816 ft 481 kts 148°
2026-04-16 18:02 29.17103 71.54996 36814 ft 481 kts 148°
2026-04-16 18:03 29.12103 71.60098 36811 ft 481 kts 148°
2026-04-16 18:03 29.07121 71.65167 36804 ft 476 kts 147°
2026-04-16 18:04 29.02183 71.70195 36798 ft 475 kts 147°
2026-04-16 18:04 28.97246 71.75212 36796 ft 475 kts 147°
2026-04-16 18:05 28.92301 71.80227 36795 ft 476 kts 147°
2026-04-16 18:05 28.87346 71.85248 36799 ft 476 kts 147°
2026-04-16 18:06 28.82393 71.90261 36803 ft 476 kts 147°
2026-04-16 18:06 28.77427 71.95280 36802 ft 477 kts 147°
2026-04-16 18:07 28.72483 72.00270 36802 ft 476 kts 147°
2026-04-16 18:07 28.67509 72.05281 36807 ft 478 kts 147°
2026-04-16 18:08 28.62515 72.10309 36802 ft 479 kts 147°
2026-04-16 18:08 28.57524 72.15329 36811 ft 479 kts 147°
2026-04-16 18:09 28.53505 72.19718 36807 ft 488 kts 140°
2026-04-16 18:09 28.49521 72.26106 36811 ft 503 kts 126°
2026-04-16 18:10 28.46813 72.33558 36816 ft 516 kts 112°
2026-04-16 18:10 28.45393 72.41644 36819 ft 523 kts 105°
2026-04-16 18:11 28.44238 72.49775 36824 ft 523 kts 105°
2026-04-16 18:11 28.43043 72.57932 36821 ft 523 kts 105°
2026-04-16 18:12 28.41812 72.66095 36817 ft 523 kts 105°
2026-04-16 18:12 28.40564 72.74269 36824 ft 524 kts 105°
2026-04-16 18:13 28.39312 72.82433 36828 ft 524 kts 105°
2026-04-16 18:13 28.38056 72.90596 36818 ft 524 kts 105°
2026-04-16 18:14 28.36801 72.98712 36819 ft 524 kts 105°
2026-04-16 18:14 28.35530 73.06901 36817 ft 525 kts 106°
2026-04-16 18:15 28.34256 73.15076 36835 ft 526 kts 106°
2026-04-16 18:15 28.32959 73.23335 36834 ft 535 kts 105°
2026-04-16 18:16 28.31644 73.31694 36836 ft 538 kts 105°
2026-04-16 18:16 28.30327 73.40066 36835 ft 537 kts 106°
2026-04-16 18:17 28.29004 73.48425 36833 ft 537 kts 106°
2026-04-16 18:17 28.27675 73.56775 36838 ft 537 kts 106°
2026-04-16 18:18 28.26350 73.65070 36842 ft 537 kts 106°
2026-04-16 18:18 28.25010 73.73423 36843 ft 537 kts 106°
2026-04-16 18:19 28.23665 73.81776 36840 ft 537 kts 106°
2026-04-16 18:19 28.22316 73.90129 36843 ft 537 kts 106°
2026-04-16 18:20 28.20961 73.98474 36849 ft 537 kts 106°
2026-04-16 18:20 28.19745 74.06873 36852 ft 540 kts 102°
2026-04-16 18:21 28.19305 74.15435 36859 ft 546 kts 94°
2026-04-16 18:21 28.19713 74.24014 36867 ft 549 kts 89°
2026-04-16 18:22 28.20360 74.32651 36868 ft 549 kts 89°
2026-04-16 18:22 28.20993 74.41304 36868 ft 549 kts 89°
2026-04-16 18:23 28.21600 74.49969 36869 ft 550 kts 89°
2026-04-16 18:23 28.22192 74.58639 36870 ft 551 kts 89°
2026-04-16 18:24 28.22779 74.67307 36868 ft 551 kts 89°
2026-04-16 18:24 28.23357 74.75942 36869 ft 551 kts 89°
2026-04-16 18:25 28.23934 74.84633 36870 ft 552 kts 89°
2026-04-16 18:25 28.24506 74.93325 36869 ft 552 kts 89°
2026-04-16 18:26 28.25071 75.02013 36870 ft 552 kts 89°
2026-04-16 18:26 28.25634 75.10724 36869 ft 553 kts 89°
2026-04-16 18:27 28.26190 75.19440 36870 ft 553 kts 89°
2026-04-16 18:27 28.26742 75.28155 36870 ft 553 kts 89°
2026-04-16 18:28 28.27286 75.36877 36870 ft 553 kts 89°
2026-04-16 18:28 28.27828 75.45601 36869 ft 553 kts 89°
2026-04-16 18:29 28.28355 75.54154 36868 ft 543 kts 89°
2026-04-16 18:29 28.28872 75.62706 36869 ft 542 kts 89°
2026-04-16 18:30 28.29384 75.71259 36870 ft 542 kts 89°
2026-04-16 18:30 28.29893 75.79810 36870 ft 542 kts 89°
2026-04-16 18:31 28.30396 75.88368 36870 ft 542 kts 89°
2026-04-16 18:31 28.30894 75.96928 36863 ft 542 kts 89°
2026-04-16 18:32 28.31387 76.05499 36858 ft 542 kts 89°
2026-04-16 18:32 28.31872 76.14056 36860 ft 543 kts 89°
2026-04-16 18:33 28.32357 76.22653 36861 ft 543 kts 89°
2026-04-16 18:33 28.32834 76.31214 36861 ft 543 kts 89°
2026-04-16 18:34 28.33304 76.39737 36859 ft 543 kts 89°
2026-04-16 18:34 28.33769 76.48308 36860 ft 543 kts 89°
2026-04-16 18:35 28.34185 76.56879 36858 ft 542 kts 92°
2026-04-16 18:35 28.33790 76.65417 36862 ft 539 kts 102°
2026-04-16 18:36 28.32269 76.73705 36860 ft 532 kts 112°
2026-04-16 18:36 28.29798 76.81586 36862 ft 528 kts 117°
2026-04-16 18:37 28.27112 76.89364 36859 ft 529 kts 117°
2026-04-16 18:37 28.24447 76.97149 36859 ft 529 kts 117°
2026-04-16 18:38 28.21793 77.04955 36860 ft 530 kts 117°
2026-04-16 18:38 28.19141 77.12770 36860 ft 531 kts 117°
2026-04-16 18:39 28.16479 77.20592 36856 ft 532 kts 117°
2026-04-16 18:39 28.13810 77.28425 36852 ft 532 kts 117°
2026-04-16 18:40 28.11151 77.36206 36849 ft 533 kts 117°
2026-04-16 18:40 28.08466 77.44048 36854 ft 533 kts 117°
2026-04-16 18:41 28.05773 77.51895 36853 ft 534 kts 117°
2026-04-16 18:41 28.03074 77.59745 36852 ft 534 kts 117°
2026-04-16 18:42 28.00365 77.67609 36848 ft 534 kts 117°
2026-04-16 18:42 27.97648 77.75474 36844 ft 535 kts 117°
2026-04-16 18:43 27.94930 77.83333 36843 ft 536 kts 117°
2026-04-16 18:43 27.92205 77.91190 36841 ft 536 kts 117°
2026-04-16 18:44 27.89473 77.99051 36843 ft 536 kts 117°
2026-04-16 18:44 27.86737 78.06909 36837 ft 536 kts 117°
2026-04-16 18:45 27.83995 78.14766 36834 ft 536 kts 117°
2026-04-16 18:45 27.81195 78.22573 36834 ft 535 kts 118°
2026-04-16 18:46 27.78273 78.30307 36816 ft 535 kts 118°
2026-04-16 18:46 27.75365 78.37998 36831 ft 535 kts 118°
2026-04-16 18:47 27.72450 78.45730 36826 ft 534 kts 118°
2026-04-16 18:47 27.69533 78.53459 36819 ft 534 kts 118°
2026-04-16 18:48 27.66612 78.61194 36816 ft 534 kts 118°
2026-04-16 18:48 27.63687 78.68919 36812 ft 534 kts 118°
2026-04-16 18:49 27.60763 78.76627 36812 ft 534 kts 118°
2026-04-16 18:49 27.57828 78.84353 36816 ft 535 kts 118°
2026-04-16 18:50 27.54892 78.92062 36805 ft 535 kts 118°
2026-04-16 18:50 27.51952 78.99766 36803 ft 534 kts 117°
2026-04-16 18:51 27.49019 79.07439 36807 ft 534 kts 117°
2026-04-16 18:51 27.46070 79.15138 36804 ft 535 kts 117°
2026-04-16 18:52 27.43115 79.22839 36808 ft 534 kts 117°
2026-04-16 18:52 27.40157 79.30530 36804 ft 535 kts 117°
2026-04-16 18:53 27.37193 79.38228 36805 ft 535 kts 117°
2026-04-16 18:53 27.34223 79.45919 36813 ft 535 kts 117°
2026-04-16 18:54 27.31209 79.53589 36815 ft 535 kts 118°
2026-04-16 18:54 27.28135 79.61221 36813 ft 535 kts 118°
2026-04-16 18:55 27.25064 79.68845 36812 ft 535 kts 118°
2026-04-16 18:55 27.21994 79.76468 36818 ft 535 kts 118°
2026-04-16 18:56 27.18919 79.84090 36816 ft 535 kts 118°
2026-04-16 18:56 27.15841 79.91713 36816 ft 535 kts 118°
2026-04-16 18:57 27.12779 79.99281 36814 ft 535 kts 118°
2026-04-16 18:58 27.08146 80.10690 36818 ft 534 kts 118°
2026-04-16 18:58 27.05058 80.18292 36817 ft 534 kts 118°
2026-04-16 18:59 27.02492 80.24597 36830 ft 533 kts 118°
2026-04-16 18:59 26.99396 80.32191 36820 ft 533 kts 118°
2026-04-16 19:00 26.96301 80.39762 36817 ft 533 kts 118°
2026-04-16 19:00 26.93207 80.47318 36818 ft 533 kts 118°
2026-04-16 19:01 26.90110 80.54869 36831 ft 532 kts 118°
2026-04-16 19:01 26.87010 80.62410 36832 ft 532 kts 118°
2026-04-16 19:02 26.83905 80.69953 36828 ft 532 kts 118°
2026-04-16 19:02 26.80800 80.77486 36833 ft 532 kts 118°
2026-04-16 19:03 26.77691 80.85010 36830 ft 531 kts 117°
2026-04-16 19:03 26.74974 80.92735 36833 ft 534 kts 110°
2026-04-16 19:04 26.72853 81.00697 36830 ft 535 kts 108°
2026-04-16 19:04 26.70784 81.08693 36823 ft 534 kts 108°
2026-04-16 19:05 26.68700 81.16678 36829 ft 534 kts 108°
2026-04-16 19:05 26.66597 81.24664 36820 ft 534 kts 108°
2026-04-16 19:06 26.64493 81.32626 36815 ft 533 kts 108°
2026-04-16 19:06 26.62395 81.40540 36807 ft 533 kts 108°
2026-04-16 19:07 26.60286 81.48477 36798 ft 532 kts 108°
2026-04-16 19:07 26.58174 81.56407 36791 ft 532 kts 108°
2026-04-16 19:08 26.56057 81.64334 36784 ft 531 kts 108°
2026-04-16 19:08 26.53940 81.72244 36778 ft 531 kts 108°
2026-04-16 19:09 26.51815 81.80163 36772 ft 531 kts 108°
2026-04-16 19:09 26.49689 81.88071 36764 ft 530 kts 108°
2026-04-16 19:10 26.47560 81.95968 36759 ft 530 kts 108°
2026-04-16 19:10 26.45436 82.03827 36758 ft 530 kts 108°
2026-04-16 19:11 26.43296 82.11724 36760 ft 530 kts 108°
2026-04-16 19:11 26.41155 82.19611 36756 ft 530 kts 108°
2026-04-16 19:12 26.39007 82.27500 36757 ft 531 kts 108°
2026-04-16 19:12 26.36855 82.35386 36758 ft 531 kts 108°
2026-04-16 19:13 26.34699 82.43274 36758 ft 531 kts 108°
2026-04-16 19:13 26.32539 82.51151 36763 ft 531 kts 108°
2026-04-16 19:14 26.30372 82.59036 36766 ft 531 kts 108°
2026-04-16 19:14 26.28204 82.66908 36767 ft 531 kts 108°
2026-04-16 19:15 26.26030 82.74780 36774 ft 531 kts 108°
2026-04-16 19:15 26.23867 82.82594 36775 ft 531 kts 108°
2026-04-16 19:16 26.21684 82.90465 36779 ft 532 kts 108°
2026-04-16 19:16 26.19492 82.98346 36786 ft 532 kts 108°
2026-04-16 19:17 26.17291 83.06247 36785 ft 532 kts 108°
2026-04-16 19:17 26.15090 83.14125 36786 ft 531 kts 108°
2026-04-16 19:18 26.12889 83.21988 36793 ft 531 kts 108°
2026-04-16 19:18 26.10685 83.29844 36793 ft 532 kts 108°
2026-04-16 19:19 26.08472 83.37710 36788 ft 532 kts 108°
2026-04-16 19:19 26.06258 83.45569 36787 ft 532 kts 108°
2026-04-16 19:20 26.04037 83.53427 36786 ft 532 kts 108°
2026-04-16 19:20 26.01812 83.61286 36786 ft 532 kts 108°
2026-04-16 19:21 25.99587 83.69140 36786 ft 532 kts 108°
2026-04-16 19:21 25.97376 83.76936 36785 ft 532 kts 108°
2026-04-16 19:22 25.95141 83.84798 36793 ft 532 kts 108°
2026-04-16 19:22 25.92904 83.92653 36795 ft 532 kts 108°
2026-04-16 19:23 25.90654 84.00531 36813 ft 532 kts 108°
2026-04-16 19:23 25.88408 84.08377 36816 ft 532 kts 108°
2026-04-16 19:24 25.86160 84.16215 36829 ft 532 kts 108°
2026-04-16 19:24 25.83906 84.24054 36834 ft 532 kts 108°
2026-04-16 19:25 25.81647 84.31892 36835 ft 531 kts 108°
2026-04-16 19:25 25.79402 84.39664 36842 ft 531 kts 108°
2026-04-16 19:26 25.77139 84.47482 36841 ft 531 kts 108°
2026-04-16 19:26 25.74874 84.55292 36849 ft 531 kts 108°
2026-04-16 19:27 25.72608 84.63091 36851 ft 531 kts 108°
2026-04-16 19:27 25.70335 84.70888 36849 ft 530 kts 108°
2026-04-16 19:28 25.68063 84.78669 36851 ft 530 kts 108°
2026-04-16 19:28 25.65784 84.86455 36857 ft 529 kts 108°
2026-04-16 19:29 25.63507 84.94224 36860 ft 529 kts 108°
2026-04-16 19:29 25.61229 85.01975 36859 ft 529 kts 108°
2026-04-16 19:30 25.59083 85.09729 36861 ft 529 kts 104°
2026-04-16 19:30 25.57554 85.17704 36861 ft 528 kts 100°
2026-04-16 19:31 25.56181 85.25702 36860 ft 528 kts 100°
2026-04-16 19:31 25.54795 85.33705 36861 ft 528 kts 100°
2026-04-16 19:32 25.53395 85.41698 36861 ft 528 kts 101°
2026-04-16 19:32 25.51986 85.49692 36860 ft 529 kts 101°
2026-04-16 19:33 25.50571 85.57693 36861 ft 529 kts 101°
2026-04-16 19:33 25.49150 85.65699 36859 ft 529 kts 101°
2026-04-16 19:34 25.47735 85.73644 36861 ft 529 kts 101°
2026-04-16 19:34 25.46305 85.81648 36860 ft 529 kts 101°
2026-04-16 19:35 25.44872 85.89645 36860 ft 529 kts 101°
2026-04-16 19:35 25.43433 85.97649 36861 ft 529 kts 101°
2026-04-16 19:36 25.41986 86.05672 36860 ft 529 kts 101°
2026-04-16 19:36 25.40550 86.13610 36860 ft 529 kts 101°
2026-04-16 19:37 25.39099 86.21603 36860 ft 529 kts 101°
2026-04-16 19:37 25.37645 86.29592 36862 ft 528 kts 101°
2026-04-16 19:38 25.36172 86.37560 36860 ft 528 kts 102°
2026-04-16 19:38 25.34151 86.45389 36859 ft 528 kts 110°
2026-04-16 19:39 25.31332 86.52895 36861 ft 528 kts 116°
2026-04-16 19:39 25.28241 86.60272 36861 ft 528 kts 116°
2026-04-16 19:40 25.25154 86.67642 36860 ft 527 kts 116°
2026-04-16 19:40 25.22102 86.74963 36860 ft 527 kts 116°
2026-04-16 19:41 25.19037 86.82318 36860 ft 527 kts 116°
2026-04-16 19:41 25.15965 86.89681 36858 ft 527 kts 116°
2026-04-16 19:42 25.12889 86.97039 36860 ft 527 kts 116°
2026-04-16 19:42 25.09808 87.04397 36859 ft 527 kts 116°
2026-04-16 19:43 25.06729 87.11739 36860 ft 526 kts 116°
2026-04-16 19:43 25.03652 87.19064 36861 ft 526 kts 116°
2026-04-16 19:44 25.00571 87.26387 36860 ft 526 kts 116°
2026-04-16 19:44 24.97487 87.33703 36860 ft 526 kts 116°
2026-04-16 19:45 24.94412 87.40989 36861 ft 526 kts 116°
2026-04-16 19:45 24.91321 87.48298 36859 ft 525 kts 116°
2026-04-16 19:46 24.88231 87.55595 36854 ft 525 kts 116°
2026-04-16 19:46 24.85139 87.62883 36851 ft 524 kts 116°
2026-04-16 19:47 24.82048 87.70158 36848 ft 524 kts 116°
2026-04-16 19:47 24.78955 87.77426 36851 ft 523 kts 116°
2026-04-16 19:48 24.75901 87.84714 36846 ft 523 kts 115°
2026-04-16 19:48 24.72935 87.91976 36841 ft 523 kts 115°
2026-04-16 19:49 24.69941 87.99275 36847 ft 522 kts 115°
2026-04-16 19:49 24.66923 88.06576 36851 ft 522 kts 116°
2026-04-16 19:50 24.63889 88.13843 36849 ft 522 kts 116°
2026-04-16 19:50 24.61368 88.19877 36851 ft 521 kts 116°
2026-04-16 19:51 24.58334 88.27130 36850 ft 521 kts 116°
2026-04-16 19:51 24.55300 88.34375 36849 ft 521 kts 116°
2026-04-16 19:52 24.52264 88.41619 36852 ft 521 kts 116°
2026-04-16 19:52 24.49228 88.48851 36850 ft 521 kts 116°
2026-04-16 19:53 24.46198 88.56092 36855 ft 521 kts 115°
2026-04-16 19:53 24.43667 88.63513 36858 ft 522 kts 108°
2026-04-16 19:54 24.41880 88.71262 36860 ft 523 kts 102°
2026-04-16 19:54 24.40342 88.79080 36860 ft 523 kts 102°
2026-04-16 19:55 24.38795 88.86899 36868 ft 523 kts 102°
2026-04-16 19:55 24.37230 88.94700 36874 ft 523 kts 102°
2026-04-16 19:56 24.35664 89.02463 36880 ft 523 kts 103°
2026-04-16 19:56 24.34087 89.10257 36878 ft 523 kts 103°
2026-04-16 19:57 24.32500 89.18067 36878 ft 523 kts 103°
2026-04-16 19:57 24.30913 89.25866 36872 ft 523 kts 103°
2026-04-16 19:58 24.29322 89.33658 36870 ft 523 kts 103°
2026-04-16 19:58 24.27727 89.41451 36870 ft 522 kts 103°
2026-04-16 19:59 24.26130 89.49228 36868 ft 522 kts 103°
2026-04-16 19:59 24.24528 89.57010 36870 ft 522 kts 103°
2026-04-16 20:00 24.22132 89.68613 36870 ft 522 kts 103°
2026-04-16 20:00 24.20524 89.76371 36868 ft 521 kts 103°
2026-04-16 20:01 24.18911 89.84129 36862 ft 521 kts 103°
2026-04-16 20:01 24.17295 89.91891 36861 ft 521 kts 103°
2026-04-16 20:02 24.15674 89.99647 36859 ft 521 kts 103°
2026-04-16 20:02 24.14050 90.07402 36859 ft 521 kts 103°
2026-04-16 20:03 24.12423 90.15149 36862 ft 521 kts 104°
2026-04-16 20:03 24.10803 90.22842 36861 ft 521 kts 104°
2026-04-16 20:04 24.09169 90.30587 36860 ft 522 kts 104°
2026-04-16 20:04 24.07526 90.38347 36862 ft 522 kts 104°
2026-04-16 20:05 24.05877 90.46097 36860 ft 522 kts 104°
2026-04-16 20:05 24.04215 90.53852 36860 ft 523 kts 104°
2026-04-16 20:06 24.02550 90.61605 36860 ft 523 kts 104°
2026-04-16 20:06 24.00880 90.69367 36860 ft 524 kts 104°
2026-04-16 20:07 23.99206 90.77121 36867 ft 523 kts 104°
2026-04-16 20:07 23.97530 90.84874 36869 ft 522 kts 104°
2026-04-16 20:08 23.95851 90.92618 36872 ft 523 kts 104°
2026-04-16 20:08 23.94165 91.00377 36879 ft 523 kts 104°
2026-04-16 20:09 23.92474 91.08140 36879 ft 524 kts 104°
2026-04-16 20:09 23.90779 91.15905 36878 ft 524 kts 104°
2026-04-16 20:10 23.89091 91.23612 36884 ft 525 kts 104°
2026-04-16 20:10 23.87485 91.31452 36878 ft 525 kts 103°
2026-04-16 20:11 23.85953 91.39217 36885 ft 526 kts 103°
2026-04-16 20:11 23.84397 91.47040 36886 ft 526 kts 103°
2026-04-16 20:12 23.82827 91.54877 36885 ft 527 kts 103°
2026-04-16 20:12 23.81251 91.62710 36888 ft 527 kts 103°
2026-04-16 20:13 23.79666 91.70548 36890 ft 528 kts 103°
2026-04-16 20:13 23.78079 91.78385 36883 ft 528 kts 103°
2026-04-16 20:14 23.76482 91.86239 36889 ft 529 kts 103°
2026-04-16 20:14 23.74885 91.94088 36888 ft 529 kts 104°
2026-04-16 20:15 23.73281 92.01945 36891 ft 528 kts 104°
2026-04-16 20:15 23.71676 92.09785 36885 ft 528 kts 104°
2026-04-16 20:16 23.70077 92.17568 36885 ft 529 kts 104°
2026-04-16 20:16 23.68463 92.25409 36884 ft 529 kts 104°
2026-04-16 20:17 23.66846 92.33243 36889 ft 528 kts 104°
2026-04-16 20:17 23.65228 92.41068 36891 ft 528 kts 104°
2026-04-16 20:18 23.63604 92.48894 36896 ft 527 kts 104°
2026-04-16 20:18 23.61980 92.56704 36896 ft 527 kts 103°
2026-04-16 20:19 23.60367 92.64513 36901 ft 527 kts 103°
2026-04-16 20:19 23.58909 92.72359 36895 ft 527 kts 102°
2026-04-16 20:20 23.57486 92.80160 36895 ft 528 kts 102°
2026-04-16 20:20 23.56037 92.88011 36902 ft 527 kts 102°
2026-04-16 20:21 23.54577 92.95855 36897 ft 527 kts 102°
2026-04-16 20:21 23.53109 93.03710 36896 ft 527 kts 102°
2026-04-16 20:22 23.51639 93.11543 36896 ft 527 kts 102°
2026-04-16 20:22 23.50166 93.19379 36906 ft 526 kts 102°
2026-04-16 20:23 23.48690 93.27216 36908 ft 527 kts 102°
2026-04-16 20:23 23.47208 93.35058 36902 ft 528 kts 102°
2026-04-16 20:24 23.45721 93.42897 36906 ft 528 kts 102°
2026-04-16 20:24 23.44604 93.50810 36911 ft 528 kts 96°
2026-04-16 20:25 23.43839 93.58787 36901 ft 528 kts 96°
2026-04-16 20:25 23.43091 93.66714 36914 ft 529 kts 96°
2026-04-16 20:26 23.42323 93.74705 36910 ft 529 kts 96°
2026-04-16 20:26 23.41544 93.82697 36900 ft 530 kts 96°
2026-04-16 20:27 23.40760 93.90693 36909 ft 530 kts 96°
2026-04-16 20:27 23.39972 93.98676 36902 ft 529 kts 96°
2026-04-16 20:28 23.39181 94.06665 36902 ft 530 kts 96°
2026-04-16 20:28 23.38383 94.14664 36902 ft 531 kts 96°
2026-04-16 20:29 23.37587 94.22612 36901 ft 531 kts 96°
2026-04-16 20:29 23.36779 94.30610 36900 ft 530 kts 96°
2026-04-16 20:30 23.35973 94.38589 36894 ft 530 kts 96°
2026-04-16 20:30 23.35160 94.46578 36893 ft 530 kts 96°
2026-04-16 20:31 23.34343 94.54560 36882 ft 531 kts 96°
2026-04-16 20:31 23.33520 94.62558 36882 ft 531 kts 96°
2026-04-16 20:32 23.32696 94.70537 36880 ft 530 kts 96°
2026-04-16 20:32 23.31867 94.78518 36878 ft 530 kts 96°
2026-04-16 20:33 23.31033 94.86504 36872 ft 530 kts 96°
2026-04-16 20:33 23.30196 94.94486 36866 ft 530 kts 96°
2026-04-16 20:34 23.29353 95.02477 36860 ft 530 kts 96°
2026-04-16 20:34 23.28512 95.10418 36859 ft 531 kts 96°
2026-04-16 20:35 23.27652 95.18494 36851 ft 531 kts 97°
2026-04-16 20:35 23.26796 95.26491 36853 ft 532 kts 97°
2026-04-16 20:36 23.25936 95.34493 36847 ft 532 kts 97°
2026-04-16 20:36 23.25071 95.42501 36844 ft 532 kts 97°
2026-04-16 20:37 23.24202 95.50509 36835 ft 532 kts 97°
2026-04-16 20:37 23.23327 95.58528 36830 ft 533 kts 97°
2026-04-16 20:38 23.22449 95.66542 36817 ft 533 kts 97°
2026-04-16 20:38 23.21566 95.74563 36820 ft 533 kts 97°
2026-04-16 20:39 23.20686 95.82519 36813 ft 533 kts 97°
2026-04-16 20:39 23.19792 95.90553 36826 ft 536 kts 97°
2026-04-16 20:40 23.19343 95.94584 37062 ft 536 kts 97°
2026-04-16 20:40 23.18893 95.98608 37413 ft 534 kts 97°
2026-04-16 20:40 23.18445 96.02621 37725 ft 532 kts 97°
2026-04-16 20:40 23.18148 96.05273 37869 ft 533 kts 97°
2026-04-16 20:41 23.17692 96.09332 38061 ft 533 kts 97°
2026-04-16 20:41 23.17247 96.13284 38244 ft 534 kts 97°
2026-04-16 20:41 23.16793 96.17295 38433 ft 534 kts 97°
2026-04-16 20:41 23.16336 96.21318 38604 ft 535 kts 97°
2026-04-16 20:42 23.15879 96.25338 38774 ft 535 kts 97°
2026-04-16 20:42 23.15422 96.29360 38791 ft 535 kts 97°
2026-04-16 20:42 23.14505 96.37402 38782 ft 535 kts 98°
2026-04-16 20:43 23.13581 96.45445 38792 ft 534 kts 98°
2026-04-16 20:43 23.12655 96.53477 38786 ft 534 kts 98°
2026-04-16 20:44 23.11732 96.61446 38781 ft 534 kts 98°
2026-04-16 20:44 23.10797 96.69494 38781 ft 534 kts 98°
2026-04-16 20:45 23.09861 96.77509 38781 ft 534 kts 98°
2026-04-16 20:45 23.08919 96.85528 38780 ft 534 kts 98°
2026-04-16 20:46 23.07976 96.93530 38780 ft 533 kts 98°
2026-04-16 20:46 23.07027 97.01544 38789 ft 533 kts 98°
2026-04-16 20:47 23.06078 97.09541 38794 ft 533 kts 98°
2026-04-16 20:47 23.05123 97.17536 38799 ft 533 kts 98°
2026-04-16 20:48 23.04164 97.25532 38797 ft 533 kts 98°
2026-04-16 20:48 23.03208 97.33465 38795 ft 533 kts 98°
2026-04-16 20:49 23.02242 97.41454 38792 ft 533 kts 98°
2026-04-16 20:49 23.01272 97.49444 38803 ft 533 kts 98°
2026-04-16 20:50 23.00298 97.57438 38802 ft 533 kts 98°
2026-04-16 20:50 22.99320 97.65438 38802 ft 533 kts 98°
2026-04-16 20:51 22.98456 97.73437 38802 ft 533 kts 95°
2026-04-16 20:51 22.98343 97.81491 38809 ft 533 kts 87°
2026-04-16 20:52 22.98751 97.89547 38834 ft 533 kts 86°
2026-04-16 20:52 22.99186 97.97594 38840 ft 533 kts 86°
2026-04-16 20:53 22.99601 98.05666 38848 ft 534 kts 86°
2026-04-16 20:53 23.00000 98.13681 38848 ft 534 kts 87°
2026-04-16 20:54 23.00393 98.21754 38859 ft 535 kts 87°
2026-04-16 20:54 23.00782 98.29829 38859 ft 534 kts 87°
2026-04-16 20:55 23.01167 98.37905 38865 ft 535 kts 87°
2026-04-16 20:55 23.01548 98.45988 38875 ft 535 kts 87°
2026-04-16 20:56 23.01926 98.54070 38869 ft 535 kts 87°
2026-04-16 20:56 23.02298 98.62153 38877 ft 535 kts 87°
2026-04-16 20:57 23.02668 98.70242 38882 ft 535 kts 87°
2026-04-16 20:57 23.03032 98.78324 38887 ft 535 kts 87°
2026-04-16 20:58 23.03392 98.86366 38892 ft 536 kts 87°
2026-04-16 20:58 23.03750 98.94468 38896 ft 537 kts 87°
2026-04-16 20:59 23.04103 99.02598 38892 ft 536 kts 87°
2026-04-16 20:59 23.04453 99.10696 38896 ft 537 kts 87°
2026-04-16 21:00 23.04798 99.18808 38896 ft 537 kts 87°
2026-04-16 21:00 23.05140 99.26920 38905 ft 537 kts 87°
2026-04-16 21:01 23.05478 99.35050 38903 ft 538 kts 88°
2026-04-16 21:01 23.05812 99.43171 38912 ft 538 kts 88°
2026-04-16 21:02 23.06141 99.51296 38909 ft 538 kts 88°
2026-04-16 21:03 23.06627 99.63499 38917 ft 538 kts 88°
2026-04-16 21:03 23.06944 99.71584 38927 ft 539 kts 88°
2026-04-16 21:04 23.07261 99.79714 38930 ft 538 kts 88°
2026-04-16 21:04 23.07572 99.87849 38928 ft 538 kts 88°
2026-04-16 21:05 23.07877 99.95967 38940 ft 537 kts 88°
2026-04-16 21:05 23.08179 100.04103 38954 ft 538 kts 88°
2026-04-16 21:06 23.08478 100.12235 38961 ft 539 kts 88°
2026-04-16 21:06 23.08772 100.20384 38959 ft 538 kts 88°
2026-04-16 21:07 23.09062 100.28525 38961 ft 539 kts 88°
2026-04-16 21:07 23.09349 100.36678 38963 ft 539 kts 88°
2026-04-16 21:08 23.09631 100.44819 38961 ft 539 kts 88°
2026-04-16 21:08 23.09909 100.52965 38961 ft 539 kts 88°
2026-04-16 21:09 23.10181 100.61058 38967 ft 539 kts 88°
2026-04-16 21:09 23.10451 100.69203 38973 ft 539 kts 88°
2026-04-16 21:10 23.10715 100.77346 38969 ft 539 kts 88°
2026-04-16 21:10 23.10977 100.85496 38971 ft 539 kts 88°
2026-04-16 21:11 23.11234 100.93644 38975 ft 539 kts 88°
2026-04-16 21:11 23.11488 101.01811 38978 ft 539 kts 89°
2026-04-16 21:12 23.11736 101.09964 38981 ft 539 kts 89°
2026-04-16 21:12 23.11981 101.18122 38984 ft 539 kts 89°
2026-04-16 21:13 23.12222 101.26274 38989 ft 539 kts 89°
2026-04-16 21:13 23.12458 101.34429 38991 ft 539 kts 89°
2026-04-16 21:14 23.12689 101.42586 38984 ft 539 kts 89°
2026-04-16 21:14 23.12918 101.50747 38975 ft 540 kts 89°
2026-04-16 21:15 23.13141 101.58923 38973 ft 540 kts 89°
2026-04-16 21:15 23.13361 101.67038 38974 ft 540 kts 89°
2026-04-16 21:16 23.13576 101.75212 38985 ft 541 kts 89°
2026-04-16 21:16 23.13787 101.83391 38979 ft 540 kts 89°
2026-04-16 21:17 23.13995 101.91571 38983 ft 541 kts 89°
2026-04-16 21:17 23.14199 101.99749 38984 ft 541 kts 89°
2026-04-16 21:18 23.14399 102.07910 38989 ft 540 kts 89°
2026-04-16 21:18 23.14593 102.16089 39000 ft 540 kts 89°
2026-04-16 21:19 23.14783 102.24262 39026 ft 540 kts 89°
2026-04-16 21:19 23.14968 102.32436 39035 ft 540 kts 89°
2026-04-16 21:20 23.15151 102.40609 39035 ft 540 kts 89°
2026-04-16 21:20 23.15328 102.48788 39044 ft 540 kts 89°
2026-04-16 21:21 23.15501 102.56958 39042 ft 540 kts 89°
2026-04-16 21:21 23.15671 102.65127 39049 ft 540 kts 89°
2026-04-16 21:22 23.15837 102.73286 39047 ft 539 kts 89°
2026-04-16 21:22 23.15997 102.81387 39051 ft 539 kts 89°
2026-04-16 21:23 23.16152 102.89549 39055 ft 539 kts 90°
2026-04-16 21:23 23.16304 102.97704 39058 ft 538 kts 90°
2026-04-16 21:24 23.16452 103.05852 39049 ft 539 kts 90°
2026-04-16 21:24 23.16597 103.14005 39056 ft 538 kts 90°
2026-04-16 21:25 23.16736 103.22154 39053 ft 538 kts 90°
2026-04-16 21:25 23.16870 103.30312 39054 ft 538 kts 90°
2026-04-16 21:26 23.17002 103.38459 39047 ft 538 kts 90°
2026-04-16 21:26 23.17129 103.46607 39047 ft 538 kts 90°
2026-04-16 21:27 23.17251 103.54709 39044 ft 538 kts 90°
2026-04-16 21:27 23.17369 103.62852 39043 ft 538 kts 90°
2026-04-16 21:28 23.17483 103.71007 39044 ft 538 kts 90°
2026-04-16 21:28 23.17593 103.79158 39036 ft 538 kts 90°
2026-04-16 21:29 23.17682 103.85925 39039 ft 538 kts 90°
2026-04-16 21:29 23.17786 103.94080 39038 ft 538 kts 90°
2026-04-16 21:30 23.17883 104.02232 39027 ft 538 kts 90°
2026-04-16 21:30 23.17976 104.10371 39020 ft 538 kts 90°
2026-04-16 21:31 23.18066 104.18514 39016 ft 538 kts 90°
2026-04-16 21:31 23.18151 104.26652 39023 ft 538 kts 90°
2026-04-16 21:32 23.18233 104.34793 39013 ft 537 kts 90°
2026-04-16 21:32 23.18310 104.42930 39014 ft 538 kts 91°
2026-04-16 21:33 23.18383 104.51074 39009 ft 538 kts 91°
2026-04-16 21:33 23.18452 104.59223 39008 ft 537 kts 91°
2026-04-16 21:34 23.18517 104.67300 39001 ft 537 kts 91°
2026-04-16 21:34 23.18576 104.75430 38995 ft 537 kts 91°
2026-04-16 21:35 23.18633 104.83565 38988 ft 537 kts 91°
2026-04-16 21:35 23.18685 104.91695 38984 ft 537 kts 91°
2026-04-16 21:36 23.18732 104.99822 38990 ft 537 kts 91°
2026-04-16 21:36 23.18776 105.07945 38987 ft 537 kts 91°
2026-04-16 21:37 23.18816 105.16070 38985 ft 537 kts 91°
2026-04-16 21:37 23.18852 105.24205 38978 ft 538 kts 91°
2026-04-16 21:38 23.18883 105.32345 38977 ft 538 kts 91°
2026-04-16 21:38 23.18909 105.40486 38970 ft 538 kts 91°
2026-04-16 21:39 23.18934 105.48635 38967 ft 537 kts 91°
2026-04-16 21:39 23.18951 105.56767 38980 ft 537 kts 91°
2026-04-16 21:40 23.18965 105.64900 38968 ft 538 kts 91°
2026-04-16 21:40 23.18975 105.73052 38957 ft 539 kts 91°
2026-04-16 21:41 23.18981 105.81206 38955 ft 539 kts 91°
2026-04-16 21:41 23.18983 105.89369 38947 ft 539 kts 91°
2026-04-16 21:42 23.18982 105.97476 38946 ft 539 kts 91°
2026-04-16 21:42 23.18974 106.05642 38945 ft 539 kts 91°
2026-04-16 21:43 23.18964 106.13799 38943 ft 539 kts 91°
2026-04-16 21:43 23.18949 106.21952 38941 ft 538 kts 91°
2026-04-16 21:44 23.18930 106.30089 38933 ft 538 kts 91°
2026-04-16 21:44 23.18907 106.38246 38931 ft 538 kts 91°
2026-04-16 21:45 23.18881 106.46387 38939 ft 538 kts 92°
2026-04-16 21:45 23.18848 106.54521 38933 ft 537 kts 91°
2026-04-16 21:46 23.18813 106.62656 38931 ft 537 kts 92°
2026-04-16 21:46 23.18773 106.70734 38924 ft 537 kts 92°
2026-04-16 21:47 23.18729 106.78866 38911 ft 537 kts 92°
2026-04-16 21:47 23.18681 106.87007 38908 ft 537 kts 92°
2026-04-16 21:48 23.18629 106.95122 38904 ft 536 kts 92°
2026-04-16 21:48 23.18573 107.03225 38908 ft 536 kts 92°
2026-04-16 21:49 23.18512 107.11342 38906 ft 536 kts 92°
2026-04-16 21:49 23.18447 107.19447 38907 ft 535 kts 92°
2026-04-16 21:50 23.18377 107.27555 38901 ft 535 kts 92°
2026-04-16 21:50 23.18306 107.35601 38898 ft 535 kts 92°
2026-04-16 21:51 23.18228 107.43697 38896 ft 535 kts 92°
2026-04-16 21:51 23.18146 107.51802 38899 ft 535 kts 92°
2026-04-16 21:52 23.18060 107.59908 38897 ft 536 kts 92°
2026-04-16 21:52 23.17970 107.68017 38899 ft 535 kts 92°
2026-04-16 21:53 23.17877 107.76118 38898 ft 535 kts 92°
2026-04-16 21:53 23.17780 107.84222 38893 ft 535 kts 92°
2026-04-16 21:54 23.17677 107.92321 38888 ft 535 kts 92°
2026-04-16 21:54 23.17571 108.00414 38888 ft 535 kts 92°
2026-04-16 21:55 23.17462 108.08507 38888 ft 534 kts 93°
2026-04-16 21:55 23.17347 108.16592 38888 ft 534 kts 93°
2026-04-16 21:56 23.17228 108.24684 38888 ft 534 kts 93°
2026-04-16 21:56 23.17106 108.32762 38887 ft 534 kts 93°
2026-04-16 21:57 23.16979 108.40854 38889 ft 534 kts 93°
2026-04-16 21:57 23.16848 108.48937 38887 ft 534 kts 93°
2026-04-16 21:58 23.16715 108.56958 38886 ft 533 kts 93°
2026-04-16 21:58 23.16576 108.65022 38888 ft 533 kts 93°
2026-04-16 21:59 23.16433 108.73093 38890 ft 533 kts 93°
2026-04-16 21:59 23.16287 108.81154 38888 ft 532 kts 93°
2026-04-16 22:00 23.16136 108.89215 38889 ft 532 kts 93°
2026-04-16 22:00 23.15981 108.97283 38896 ft 533 kts 93°
2026-04-16 22:01 23.15823 109.05283 38897 ft 533 kts 93°
2026-04-16 22:01 23.15660 109.13341 38897 ft 532 kts 93°
2026-04-16 22:02 23.15492 109.21395 38894 ft 532 kts 93°
2026-04-16 22:02 23.15322 109.29442 38899 ft 532 kts 93°
2026-04-16 22:03 23.15147 109.37492 38907 ft 532 kts 93°
2026-04-16 22:03 23.14968 109.45553 38907 ft 532 kts 94°
2026-04-16 22:04 23.14785 109.53599 38909 ft 532 kts 93°
2026-04-16 22:04 23.14597 109.61667 38910 ft 532 kts 94°
2026-04-16 22:05 23.14407 109.69657 38916 ft 532 kts 94°
2026-04-16 22:05 23.14211 109.77707 38913 ft 532 kts 94°
2026-04-16 22:06 23.14012 109.85759 38916 ft 532 kts 94°
2026-04-16 22:06 23.13704 109.97831 38918 ft 532 kts 94°
2026-04-16 22:07 23.13496 110.05876 38926 ft 532 kts 94°
2026-04-16 22:07 23.13283 110.13912 38928 ft 531 kts 94°
2026-04-16 22:08 23.13064 110.21949 38930 ft 531 kts 94°
2026-04-16 22:08 23.12841 110.29973 38923 ft 530 kts 94°
2026-04-16 22:09 23.12615 110.37987 38923 ft 530 kts 94°
2026-04-16 22:09 23.12387 110.45969 38930 ft 530 kts 94°
2026-04-16 22:10 23.12153 110.53986 38926 ft 530 kts 94°
2026-04-16 22:10 23.11917 110.61997 38929 ft 530 kts 94°
2026-04-16 22:11 23.11675 110.70008 38934 ft 529 kts 94°
2026-04-16 22:11 23.11429 110.78005 38932 ft 529 kts 94°
2026-04-16 22:12 23.11181 110.86015 38933 ft 529 kts 94°
2026-04-16 22:12 23.10928 110.94008 38933 ft 529 kts 94°
2026-04-16 22:13 23.10670 111.02000 38932 ft 529 kts 95°
2026-04-16 22:13 23.10411 111.09993 38931 ft 528 kts 95°
2026-04-16 22:14 23.10144 111.17989 38933 ft 528 kts 95°
2026-04-16 22:14 23.09874 111.25975 38938 ft 528 kts 95°
2026-04-16 22:15 23.09604 111.33948 38933 ft 527 kts 95°
2026-04-16 22:15 23.09329 111.41863 38940 ft 527 kts 95°
2026-04-16 22:16 23.09049 111.49828 38944 ft 527 kts 95°
2026-04-16 22:16 23.08764 111.57800 38942 ft 527 kts 95°
2026-04-16 22:17 23.08477 111.65767 38940 ft 527 kts 95°
2026-04-16 22:17 23.08235 111.72388 38946 ft 526 kts 95°
2026-04-16 22:18 23.07938 111.80344 38947 ft 527 kts 95°
2026-04-16 22:18 23.07639 111.88297 38952 ft 526 kts 95°
2026-04-16 22:19 23.07333 111.96330 38950 ft 526 kts 95°
2026-04-16 22:19 23.07026 112.04285 38954 ft 526 kts 95°
2026-04-16 22:20 23.06717 112.12235 38952 ft 525 kts 95°
2026-04-16 22:20 23.06402 112.20162 38951 ft 525 kts 95°
2026-04-16 22:21 23.06085 112.28045 38953 ft 525 kts 95°
2026-04-16 22:21 23.05763 112.35967 38952 ft 525 kts 95°
2026-04-16 22:22 23.05438 112.43900 38952 ft 525 kts 95°
2026-04-16 22:22 23.05108 112.51832 38952 ft 525 kts 96°
2026-04-16 22:23 23.04774 112.59751 38952 ft 524 kts 95°
2026-04-16 22:23 23.04436 112.67695 38959 ft 524 kts 96°
2026-04-16 22:24 23.04095 112.75625 38962 ft 524 kts 96°
2026-04-16 22:24 23.03751 112.83543 38962 ft 524 kts 96°
2026-04-16 22:25 23.03403 112.91453 38961 ft 524 kts 96°
2026-04-16 22:25 23.03054 112.99314 38961 ft 524 kts 96°
2026-04-16 22:26 23.02656 113.07214 38955 ft 521 kts 101°
2026-04-16 22:26 23.01883 113.11036 38957 ft 514 kts 114°
2026-04-16 22:26 23.00431 113.14539 38959 ft 505 kts 126°
2026-04-16 22:27 22.98400 113.17589 38961 ft 495 kts 138°
2026-04-16 22:27 22.95900 113.20106 38963 ft 486 kts 149°
2026-04-16 22:27 22.93057 113.22022 38963 ft 476 kts 160°
2026-04-16 22:27 22.89999 113.23326 38969 ft 469 kts 168°
2026-04-16 22:28 22.83778 113.25424 38832 ft 466 kts 169°
2026-04-16 22:28 22.80687 113.26464 38233 ft 466 kts 168°
2026-04-16 22:28 22.77579 113.27522 37389 ft 471 kts 168°
2026-04-16 22:29 22.74438 113.28602 36575 ft 475 kts 168°
2026-04-16 22:29 22.71281 113.29693 35796 ft 477 kts 168°
2026-04-16 22:29 22.68101 113.30796 34703 ft 482 kts 168°
2026-04-16 22:29 22.64926 113.31895 33527 ft 489 kts 168°
2026-04-16 22:30 22.61617 113.33040 32267 ft 496 kts 168°
2026-04-16 22:30 22.58354 113.34162 31116 ft 500 kts 167°
2026-04-16 22:30 22.55045 113.35302 29762 ft 499 kts 167°
2026-04-16 22:30 22.51720 113.36449 28024 ft 501 kts 167°
2026-04-16 22:31 22.48428 113.37589 26983 ft 489 kts 167°
2026-04-16 22:31 22.45224 113.38702 26412 ft 480 kts 167°
2026-04-16 22:31 22.42042 113.39806 26090 ft 480 kts 167°
2026-04-16 22:31 22.38866 113.40905 25561 ft 477 kts 166°
2026-04-16 22:32 22.35720 113.41992 25019 ft 472 kts 167°
2026-04-16 22:32 22.32608 113.43066 24540 ft 466 kts 167°
2026-04-16 22:32 22.29538 113.44124 24083 ft 460 kts 166°
2026-04-16 22:32 22.26498 113.45171 23621 ft 454 kts 166°
2026-04-16 22:33 22.23509 113.46198 23177 ft 449 kts 166°
2026-04-16 22:33 22.20546 113.47232 22532 ft 447 kts 166°
2026-04-16 22:33 22.17622 113.48296 21701 ft 450 kts 165°
2026-04-16 22:33 22.14669 113.49385 21094 ft 447 kts 165°
2026-04-16 22:34 22.11742 113.50467 20469 ft 443 kts 165°
2026-04-16 22:34 22.08826 113.51541 19627 ft 440 kts 165°
2026-04-16 22:34 22.05948 113.52598 18897 ft 435 kts 165°
2026-04-16 22:34 22.03097 113.53643 18200 ft 429 kts 165°
2026-04-16 22:35 22.00281 113.54674 17440 ft 425 kts 164°
2026-04-16 22:35 21.97531 113.55777 16712 ft 422 kts 161°
2026-04-16 22:35 21.94836 113.56998 16027 ft 416 kts 160°
2026-04-16 22:35 21.92191 113.58217 15339 ft 411 kts 159°
2026-04-16 22:36 21.89582 113.59422 14651 ft 406 kts 159°
2026-04-16 22:36 21.87004 113.60611 13969 ft 400 kts 159°
2026-04-16 22:36 21.84464 113.61781 13280 ft 395 kts 159°
2026-04-16 22:36 21.81951 113.62938 12605 ft 390 kts 159°
2026-04-16 22:37 21.79468 113.64078 11928 ft 385 kts 158°
2026-04-16 22:37 21.77023 113.65202 11291 ft 379 kts 158°
2026-04-16 22:37 21.74714 113.66560 10942 ft 382 kts 143°
2026-04-16 22:37 21.72928 113.68655 10971 ft 374 kts 124°
2026-04-16 22:38 21.71887 113.71145 10938 ft 358 kts 105°
2026-04-16 22:38 21.71615 113.73715 10923 ft 342 kts 88°
2026-04-16 22:38 21.72039 113.76195 10927 ft 325 kts 70°
2026-04-16 22:38 21.73010 113.78288 10927 ft 313 kts 54°
2026-04-16 22:39 21.74442 113.80028 10938 ft 311 kts 42°
2026-04-16 22:39 21.76087 113.81592 10942 ft 310 kts 39°
2026-04-16 22:39 21.77696 113.83093 10927 ft 310 kts 40°
2026-04-16 22:39 21.79314 113.84632 10926 ft 310 kts 40°
2026-04-16 22:40 21.80924 113.86189 10935 ft 310 kts 41°
2026-04-16 22:40 21.82527 113.87752 10931 ft 310 kts 42°
2026-04-16 22:40 21.83945 113.89502 10926 ft 311 kts 57°
2026-04-16 22:40 21.84890 113.91594 10929 ft 311 kts 72°
2026-04-16 22:41 21.85302 113.93875 10940 ft 311 kts 86°
2026-04-16 22:41 21.85386 113.96200 10929 ft 311 kts 89°
2026-04-16 22:41 21.85419 113.98537 10934 ft 311 kts 90°
2026-04-16 22:41 21.85453 114.00880 10941 ft 311 kts 89°
2026-04-16 22:42 21.85498 114.03190 10798 ft 306 kts 89°
2026-04-16 22:42 21.85549 114.05485 10350 ft 307 kts 89°
2026-04-16 22:42 21.85605 114.07782 9928 ft 307 kts 88°
2026-04-16 22:42 21.85664 114.10080 9544 ft 306 kts 88°
2026-04-16 22:43 21.85724 114.12364 9154 ft 305 kts 88°
2026-04-16 22:43 21.85784 114.14651 8761 ft 304 kts 88°
2026-04-16 22:43 21.85846 114.16921 8378 ft 303 kts 88°
2026-04-16 22:43 21.85983 114.19150 8020 ft 300 kts 82°
2026-04-16 22:44 21.86359 114.21361 7654 ft 298 kts 75°
2026-04-16 22:44 21.86985 114.23475 7290 ft 295 kts 63°
2026-04-16 22:44 21.88262 114.25147 6857 ft 289 kts 31°
2026-04-16 22:44 21.90095 114.25903 6508 ft 281 kts
2026-04-16 22:45 21.92026 114.26116 6182 ft 278 kts
2026-04-16 22:45 21.93945 114.26302 6003 ft 276 kts
2026-04-16 22:45 21.95869 114.26481 6004 ft 277 kts 359°
2026-04-16 22:45 21.97785 114.26323 6002 ft 276 kts 350°
2026-04-16 22:46 21.99685 114.26006 6002 ft 276 kts 349°
2026-04-16 22:46 22.01586 114.25680 6003 ft 276 kts 349°
2026-04-16 22:46 22.03489 114.25371 5999 ft 276 kts 350°
2026-04-16 22:46 22.05389 114.25078 5999 ft 276 kts 350°
2026-04-16 22:47 22.07270 114.24799 6001 ft 276 kts 350°
2026-04-16 22:47 22.09180 114.24523 6001 ft 276 kts 350°
2026-04-16 22:47 22.11098 114.24248 6001 ft 276 kts 351°
2026-04-16 22:47 22.13001 114.23978 6002 ft 276 kts 351°
2026-04-16 22:48 22.14906 114.23709 5999 ft 276 kts 351°
2026-04-16 22:48 22.16809 114.23440 5999 ft 276 kts 351°
2026-04-16 22:48 22.18712 114.23172 6006 ft 276 kts 351°
2026-04-16 22:48 22.20619 114.22904 6011 ft 276 kts 351°
2026-04-16 22:49 22.22518 114.22636 5994 ft 273 kts 351°
2026-04-16 22:49 22.24391 114.22373 5663 ft 272 kts 351°
2026-04-16 22:49 22.26271 114.22107 5275 ft 273 kts 351°
2026-04-16 22:49 22.28147 114.21843 5013 ft 269 kts 351°
2026-04-16 22:50 22.30016 114.21580 5010 ft 271 kts 351°
2026-04-16 22:50 22.31897 114.21315 5005 ft 272 kts 351°
2026-04-16 22:50 22.33773 114.21050 4997 ft 272 kts 351°
2026-04-16 22:50 22.35646 114.20786 4995 ft 272 kts 351°
2026-04-16 22:51 22.37523 114.20521 4990 ft 272 kts 351°
2026-04-16 22:51 22.39390 114.20193 4978 ft 270 kts 340°
2026-04-16 22:51 22.40947 114.19186 4943 ft 263 kts 313°
2026-04-16 22:51 22.41870 114.17535 4699 ft 256 kts 284°
2026-04-16 22:52 22.41909 114.15644 4448 ft 252 kts 255°
2026-04-16 22:52 22.41130 114.13969 4169 ft 249 kts 235°
2026-04-16 22:52 22.40155 114.12444 3995 ft 242 kts 240°
2026-04-16 22:52 22.39414 114.10852 3842 ft 233 kts 248°
2026-04-16 22:53 22.38865 114.09233 3552 ft 225 kts 252°
2026-04-16 22:53 22.38386 114.07657 3236 ft 215 kts 252°
2026-04-16 22:53 22.37924 114.06155 2927 ft 206 kts 252°
2026-04-16 22:53 22.37471 114.04722 2639 ft 196 kts 251°
2026-04-16 22:54 22.37034 114.03365 2362 ft 185 kts 250°
2026-04-16 22:54 22.36620 114.02087 2110 ft 174 kts 250°
2026-04-16 22:54 22.36233 114.00892 1875 ft 163 kts 250°
2026-04-16 22:54 22.35866 113.99756 1677 ft 159 kts 250°
2026-04-16 22:55 22.35498 113.98614 1463 ft 158 kts 250°
2026-04-16 22:55 22.35136 113.97489 1265 ft 158 kts 250°
2026-04-16 22:55 22.34773 113.96360 1048 ft 159 kts 250°
2026-04-16 22:55 22.34412 113.95233 836 ft 159 kts 250°
2026-04-16 22:56 22.34050 113.94102 636 ft 159 kts 250°
2026-04-16 22:56 22.33687 113.92976 394 ft 158 kts 252°
2026-04-16 22:56 22.33332 113.91849 156 ft 158 kts 251°
2026-04-16 22:56 22.32984 113.90769 44 ft 140 kts 251°
2026-04-16 22:57 22.32736 113.90007 44 ft 75 kts 251°
2026-04-16 22:57 22.32629 113.89697 44 ft 40 kts 241°
2026-04-16 22:57 22.32488 113.89526 44 ft 15 kts 220°
2026-04-16 22:57 22.32384 113.89496 44 ft 18 kts 159°
2026-04-16 22:58 22.32324 113.89588 44 ft 17 kts 72°
2026-04-16 22:58 22.32368 113.89721 44 ft 20 kts 70°
2026-04-16 22:58 22.32418 113.89874 44 ft 23 kts 70°
2026-04-16 22:58 22.32473 113.90043 44 ft 25 kts 70°
2026-04-16 22:59 22.32529 113.90214 44 ft 17 kts 71°
2026-04-16 22:59 22.32568 113.90347 44 ft 19 kts 84°
2026-04-16 22:59 22.32472 113.90424 44 ft 20 kts 159°
2026-04-16 22:59 22.32333 113.90476 44 ft 23 kts 160°
2026-04-16 23:00 22.32176 113.90536 44 ft 25 kts 161°
2026-04-16 23:00 22.32010 113.90598 44 ft 19 kts 161°
2026-04-16 23:00 22.31872 113.90650 44 ft 22 kts 161°
2026-04-16 23:00 22.31717 113.90708 44 ft 25 kts 161°
2026-04-16 23:01 22.31601 113.90787 44 ft 19 kts 98°
2026-04-16 23:01 22.31646 113.90938 42 ft 22 kts 69°
2026-04-16 23:01 22.31700 113.91106 44 ft 25 kts 71°
2026-04-16 23:01 22.31741 113.91233 43 ft 13 kts 71°
2026-04-16 23:02 22.31706 113.91309 44 ft 15 kts 161°
2026-04-16 23:02 22.31598 113.91349 44 ft 18 kts 161°
2026-04-16 23:02 22.31469 113.91399 44 ft 20 kts 150°
2026-04-16 23:02 22.31468 113.91523 44 ft 20 kts 71°
2026-04-16 23:03 22.31515 113.91671 44 ft 22 kts 71°
2026-04-16 23:03 22.31558 113.91804 44 ft 11 kts 71°
2026-04-16 23:03 22.31587 113.91894 44 ft 14 kts 71°
2026-04-16 23:03 22.31610 113.92005 44 ft 16 kts 112°
2026-04-16 23:04 22.31500 113.92065 44 ft 19 kts 169°
2026-04-16 23:04 22.31421 113.91962 44 ft 21 kts 247°
2026-04-16 23:04 22.31313 113.91937 44 ft 19 kts 160°
2026-04-16 23:04 22.31174 113.91990 42 ft 22 kts 161°
2026-04-16 23:05 22.31018 113.92047 44 ft 25 kts 161°
2026-04-16 23:05 22.30855 113.92108 44 ft 17 kts 161°
2026-04-16 23:05 22.30794 113.92111 44 ft 9 kts 219°
2026-04-16 23:05 22.30807 113.92041 44 ft 13 kts 327°
2026-04-16 23:06 22.30839 113.91964 44 ft 4 kts 251°
2026-04-16 23:06 22.30836 113.91953 44 ft 3 kts 250°
2026-04-16 23:06 22.30829 113.91934 44 ft 0 kts 250°
2026-04-16 23:07 22.30829 113.91933 44 ft 0 kts 250°